GEFSGL_prec_meanprecacc_210.txt.gz
Total_Precipitation_Accumulation
0.92 0.96 1.02 1.09 1.12 1.17 1.19 1.20 1.18 1.15 1.13 1.17 1.21 1.23 1.25 1.29 1.39 1.45 1.41 1.62 1.76 1.79 1.61 1.50 1.45 1.44 1.43 1.30 1.32 1.39 1.47 1.66 1.67 1.38 1.30 1.43 1.52 1.44 1.46 1.42 1.33 1.35 1.27
0.81 0.95 0.99 1.09 1.10 1.08 1.12 1.29 1.31 1.28 1.27 1.29 1.32 1.40 1.37 1.35 1.42 1.42 1.34 1.41 1.60 1.80 1.99 2.03 1.82 1.72 1.68 1.53 1.50 1.45 1.47 1.59 1.67 1.61 1.51 1.56 1.58 1.55 1.53 1.35 1.14 1.08 1.14
0.72 0.84 0.96 1.03 1.10 1.18 1.30 1.45 1.54 1.49 1.48 1.54 1.58 1.52 1.51 1.52 1.50 1.46 1.45 1.49 1.58 1.66 1.85 2.03 2.03 2.06 1.86 1.79 1.70 1.61 1.56 1.51 1.63 1.63 1.55 1.69 1.71 1.71 1.58 1.28 1.18 1.22 1.09
0.93 1.03 1.09 1.25 1.38 1.45 1.46 1.57 1.61 1.64 1.69 1.71 1.74 1.69 1.66 1.70 1.67 1.63 1.59 1.58 1.62 1.62 1.64 1.70 1.81 2.04 2.00 1.96 1.84 1.81 1.79 1.78 1.82 1.78 1.73 1.81 1.98 2.04 1.83 1.50 1.36 1.32 1.21
1.24 1.29 1.30 1.40 1.52 1.66 1.83 1.87 1.88 1.90 1.89 1.99 1.95 1.85 1.83 1.85 1.71 1.76 1.88 1.87 1.91 1.76 1.67 1.60 1.58 1.77 1.85 1.86 1.69 1.74 1.87 1.93 1.96 1.93 1.90 1.95 2.03 2.14 1.88 1.61 1.43 1.38 1.34
1.71 1.80 1.86 1.92 2.01 2.08 2.13 2.12 2.18 2.19 2.14 2.06 1.98 1.99 1.98 1.81 1.92 1.95 1.85 1.89 2.04 2.04 1.91 1.82 1.70 1.61 1.60 1.65 1.70 1.74 1.79 1.80 1.85 1.89 1.85 1.89 1.96 2.02 2.09 1.90 1.66 1.47 1.36
1.76 1.82 1.91 1.99 2.07 2.13 2.17 2.21 2.17 2.17 2.10 2.00 2.03 2.08 2.02 2.04 1.99 1.78 1.66 1.66 1.71 1.81 1.87 1.85 1.65 1.51 1.58 1.54 1.69 1.72 1.64 1.59 1.55 1.60 1.65 1.72 2.05 2.25 2.42 2.16 1.90 1.72 1.51
1.72 1.78 1.77 1.78 1.84 1.97 2.09 2.08 1.99 1.97 1.95 1.93 1.94 1.86 1.78 1.75 1.76 1.57 1.51 1.46 1.42 1.39 1.50 1.61 1.58 1.49 1.49 1.53 1.47 1.33 1.26 1.28 1.27 1.19 1.25 1.46 1.76 2.19 2.42 2.42 2.33 2.10 1.85
1.42 1.51 1.54 1.63 1.74 1.83 1.91 1.96 1.97 1.92 1.75 1.63 1.56 1.53 1.51 1.56 1.68 1.50 1.41 1.36 1.41 1.32 1.31 1.31 1.32 1.24 1.31 1.32 1.22 1.10 1.03 1.03 1.05 1.06 1.06 1.21 1.44 1.73 2.07 2.22 2.15 1.95 1.67
1.54 1.62 1.70 1.79 1.88 1.86 1.91 1.97 1.94 1.86 1.81 1.76 1.59 1.47 1.44 1.45 1.59 1.41 1.31 1.28 1.34 1.32 1.32 1.35 1.44 1.27 1.16 1.03 0.97 0.98 0.89 0.86 0.90 0.88 0.88 0.94 1.05 1.27 1.65 1.76 1.75 1.75 1.56
1.56 1.62 1.66 1.73 1.80 1.84 1.93 1.87 1.85 1.82 1.75 1.65 1.53 1.47 1.46 1.43 1.43 1.28 1.18 1.10 1.12 1.13 1.08 1.08 1.19 1.20 1.01 0.86 0.84 0.83 0.78 0.75 0.77 0.75 0.74 0.78 0.89 1.03 1.20 1.46 1.55 1.48 1.39
1.59 1.66 1.67 1.71 1.72 1.73 1.78 1.75 1.72 1.69 1.61 1.52 1.47 1.46 1.48 1.44 1.30 1.17 1.06 1.00 1.02 1.00 1.08 1.10 1.20 1.24 1.02 0.87 0.74 0.68 0.65 0.59 0.62 0.70 0.70 0.69 0.76 0.88 1.07 1.29 1.49 1.49 1.37
1.59 1.71 1.76 1.73 1.71 1.76 1.86 1.89 1.79 1.71 1.63 1.52 1.42 1.30 1.27 1.32 1.32 1.19 1.02 0.96 0.99 0.97 1.15 1.39 1.39 1.33 1.14 0.92 0.84 0.82 0.70 0.59 0.63 0.68 0.70 0.67 0.70 0.82 1.06 1.31 1.50 1.62 1.54
1.65 1.70 1.77 1.78 1.79 1.82 1.88 1.85 1.78 1.68 1.58 1.49 1.38 1.29 1.28 1.30 1.28 1.25 1.14 1.04 1.04 1.05 1.19 1.38 1.47 1.48 1.36 1.19 1.10 1.01 0.81 0.74 0.79 0.80 0.82 0.85 0.89 0.98 1.13 1.23 1.38 1.52 1.56
1.67 1.72 1.71 1.71 1.76 1.79 1.76 1.71 1.61 1.52 1.46 1.39 1.27 1.22 1.21 1.22 1.27 1.27 1.15 1.04 0.99 1.03 1.17 1.40 1.55 1.64 1.63 1.56 1.42 1.31 1.16 1.02 0.92 0.91 0.97 0.97 0.98 1.04 1.09 1.22 1.37 1.41 1.37
1.65 1.56 1.51 1.43 1.43 1.45 1.44 1.46 1.50 1.36 1.36 1.27 1.19 1.10 1.03 1.08 1.11 1.04 0.95 0.90 0.91 0.98 1.07 1.25 1.49 1.66 1.72 1.80 1.77 1.66 1.47 1.29 1.18 1.14 1.11 1.08 1.08 1.06 1.08 1.20 1.36 1.42 1.33
1.53 1.44 1.38 1.35 1.33 1.28 1.24 1.25 1.31 1.31 1.24 1.15 1.17 1.10 0.98 0.98 0.92 0.88 0.88 0.85 0.84 0.86 0.94 1.06 1.18 1.34 1.51 1.70 1.77 1.75 1.59 1.46 1.47 1.42 1.30 1.24 1.25 1.24 1.21 1.27 1.39 1.46 1.44
1.36 1.39 1.29 1.22 1.26 1.25 1.21 1.20 1.21 1.23 1.22 1.14 1.10 1.07 0.89 0.81 0.78 0.78 0.80 0.78 0.72 0.74 0.82 0.91 1.00 1.13 1.31 1.56 1.71 1.77 1.72 1.62 1.60 1.61 1.55 1.46 1.43 1.37 1.29 1.24 1.32 1.40 1.44
1.20 1.20 1.16 1.14 1.16 1.16 1.16 1.13 1.12 1.12 1.16 1.11 1.03 1.05 0.98 0.83 0.78 0.79 0.85 0.82 0.77 0.77 0.85 0.88 0.93 1.05 1.21 1.42 1.64 1.79 1.80 1.71 1.63 1.67 1.65 1.55 1.49 1.43 1.30 1.21 1.26 1.40 1.46
1.04 1.16 1.06 1.04 1.08 1.11 1.15 1.17 1.14 1.15 1.18 1.15 1.08 1.06 1.04 0.93 0.85 0.92 1.01 1.06 0.99 0.94 0.95 0.95 1.01 1.12 1.26 1.47 1.65 1.73 1.75 1.72 1.67 1.68 1.66 1.57 1.50 1.46 1.33 1.27 1.27 1.32 1.35
0.96 0.97 1.00 0.93 0.94 0.99 1.02 1.09 1.10 1.11 1.13 1.11 1.03 1.00 0.94 0.88 0.96 1.05 1.14 1.16 1.11 1.05 1.01 0.99 1.02 1.11 1.28 1.47 1.59 1.69 1.71 1.71 1.70 1.66 1.63 1.56 1.50 1.48 1.44 1.40 1.34 1.34 1.38
0.93 0.87 0.86 0.88 0.97 0.99 1.00 1.05 1.07 1.06 1.08 1.09 1.10 1.09 1.06 0.95 1.03 1.11 1.17 1.23 1.22 1.20 1.15 1.10 1.06 1.12 1.23 1.37 1.52 1.64 1.66 1.65 1.65 1.65 1.61 1.56 1.53 1.50 1.50 1.49 1.45 1.42 1.44
0.97 0.96 0.94 0.96 1.05 1.10 1.10 1.10 1.10 1.10 1.11 1.12 1.10 1.09 1.12 1.13 1.16 1.23 1.26 1.29 1.26 1.23 1.17 1.13 1.11 1.13 1.18 1.24 1.33 1.44 1.50 1.51 1.50 1.51 1.56 1.53 1.49 1.47 1.49 1.49 1.46 1.46 1.42
0.90 0.94 0.93 0.98 1.04 1.06 1.08 1.10 1.06 1.03 1.03 1.05 1.10 1.17 1.21 1.24 1.27 1.29 1.26 1.22 1.16 1.13 1.13 1.10 1.10 1.12 1.15 1.22 1.26 1.24 1.26 1.30 1.28 1.29 1.33 1.37 1.37 1.37 1.40 1.41 1.44 1.49 1.53
0.74 0.85 0.93 0.96 0.96 0.99 1.00 0.97 0.96 0.98 1.04 1.12 1.17 1.22 1.25 1.27 1.27 1.21 1.13 1.07 0.99 0.98 1.02 1.02 1.01 0.98 0.97 1.00 1.02 1.04 1.15 1.17 1.15 1.14 1.14 1.18 1.19 1.24 1.29 1.31 1.36 1.47 1.59
0.70 0.82 0.89 0.91 0.90 0.93 0.99 0.99 0.96 1.00 1.08 1.10 1.14 1.16 1.16 1.16 1.17 1.12 1.06 1.03 1.00 0.97 0.97 0.98 0.94 0.86 0.85 0.85 0.83 0.85 0.84 0.81 0.87 0.96 0.98 1.00 1.07 1.16 1.22 1.25 1.29 1.39 1.49

GEFSGL_prec_meanprecacc_216.txt.gz
Total_Precipitation_Accumulation
0.93 0.98 1.03 1.11 1.14 1.20 1.24 1.25 1.23 1.20 1.18 1.21 1.25 1.27 1.29 1.33 1.43 1.51 1.47 1.69 1.82 1.84 1.67 1.57 1.51 1.50 1.49 1.35 1.38 1.46 1.54 1.73 1.74 1.42 1.36 1.48 1.56 1.48 1.50 1.45 1.35 1.37 1.28
0.82 0.97 1.03 1.13 1.15 1.12 1.16 1.34 1.35 1.32 1.30 1.32 1.36 1.44 1.41 1.40 1.48 1.47 1.38 1.47 1.65 1.85 2.05 2.09 1.88 1.79 1.74 1.58 1.56 1.54 1.55 1.68 1.75 1.68 1.59 1.65 1.66 1.61 1.58 1.39 1.16 1.10 1.16
0.73 0.87 1.00 1.08 1.15 1.22 1.35 1.50 1.59 1.53 1.52 1.58 1.62 1.56 1.55 1.57 1.55 1.50 1.49 1.54 1.64 1.72 1.90 2.08 2.09 2.14 1.92 1.84 1.75 1.67 1.63 1.58 1.72 1.69 1.61 1.77 1.81 1.78 1.65 1.33 1.21 1.25 1.11
0.94 1.06 1.15 1.31 1.45 1.52 1.53 1.62 1.66 1.70 1.76 1.78 1.79 1.74 1.71 1.74 1.72 1.67 1.63 1.62 1.68 1.68 1.69 1.75 1.87 2.10 2.07 2.03 1.90 1.88 1.87 1.86 1.90 1.84 1.78 1.88 2.06 2.11 1.91 1.55 1.41 1.37 1.24
1.27 1.32 1.35 1.45 1.57 1.71 1.87 1.91 1.92 1.93 1.91 2.02 1.99 1.90 1.87 1.88 1.73 1.80 1.92 1.92 1.97 1.82 1.73 1.67 1.65 1.85 1.93 1.93 1.75 1.81 1.94 2.00 2.02 1.99 1.96 2.02 2.09 2.20 1.93 1.67 1.48 1.44 1.40
1.73 1.82 1.89 1.95 2.04 2.11 2.16 2.15 2.21 2.22 2.18 2.10 2.01 2.02 2.00 1.83 1.94 1.98 1.89 1.95 2.11 2.10 1.98 1.90 1.77 1.68 1.68 1.72 1.76 1.80 1.85 1.86 1.91 1.94 1.91 1.94 2.02 2.09 2.16 1.97 1.73 1.55 1.44
1.79 1.85 1.94 2.03 2.11 2.17 2.21 2.23 2.20 2.20 2.13 2.04 2.07 2.11 2.04 2.07 2.03 1.81 1.68 1.70 1.76 1.86 1.94 1.92 1.71 1.57 1.66 1.61 1.75 1.77 1.67 1.61 1.58 1.65 1.71 1.78 2.12 2.32 2.50 2.23 1.98 1.80 1.59
1.77 1.84 1.83 1.84 1.91 2.03 2.15 2.13 2.03 2.00 1.99 1.96 1.96 1.88 1.81 1.79 1.80 1.59 1.53 1.48 1.46 1.43 1.55 1.67 1.64 1.57 1.56 1.59 1.53 1.39 1.30 1.31 1.30 1.22 1.28 1.50 1.82 2.25 2.48 2.48 2.41 2.18 1.93
1.47 1.56 1.60 1.70 1.82 1.91 1.99 2.03 2.03 1.97 1.80 1.67 1.59 1.57 1.55 1.60 1.72 1.53 1.44 1.40 1.44 1.34 1.34 1.35 1.37 1.30 1.38 1.38 1.30 1.17 1.08 1.07 1.09 1.10 1.09 1.23 1.47 1.76 2.11 2.27 2.22 2.01 1.71
1.59 1.68 1.76 1.86 1.96 1.96 2.03 2.10 2.06 1.96 1.89 1.82 1.65 1.52 1.48 1.48 1.64 1.45 1.34 1.31 1.37 1.35 1.36 1.39 1.48 1.32 1.22 1.09 1.03 1.04 0.94 0.90 0.96 0.94 0.91 0.97 1.07 1.29 1.67 1.80 1.81 1.81 1.61
1.64 1.69 1.73 1.80 1.88 1.94 2.06 2.02 2.02 1.98 1.89 1.76 1.62 1.52 1.50 1.47 1.48 1.31 1.21 1.12 1.15 1.16 1.12 1.13 1.24 1.26 1.06 0.90 0.88 0.87 0.82 0.82 0.87 0.83 0.79 0.81 0.91 1.05 1.22 1.49 1.59 1.54 1.45
1.70 1.76 1.73 1.77 1.79 1.81 1.86 1.84 1.83 1.79 1.71 1.62 1.56 1.53 1.53 1.49 1.34 1.19 1.08 1.02 1.04 1.03 1.12 1.15 1.26 1.31 1.08 0.93 0.79 0.72 0.71 0.65 0.68 0.77 0.76 0.75 0.81 0.92 1.11 1.33 1.52 1.53 1.41
1.69 1.80 1.85 1.82 1.78 1.84 1.94 1.95 1.84 1.75 1.67 1.56 1.46 1.33 1.30 1.35 1.34 1.20 1.03 0.97 1.00 0.99 1.18 1.42 1.44 1.39 1.20 0.97 0.88 0.87 0.76 0.64 0.69 0.73 0.74 0.71 0.74 0.87 1.11 1.38 1.56 1.67 1.58
1.73 1.75 1.83 1.87 1.89 1.92 1.95 1.91 1.81 1.70 1.61 1.51 1.40 1.32 1.30 1.32 1.30 1.26 1.15 1.06 1.06 1.07 1.20 1.40 1.51 1.52 1.40 1.23 1.14 1.05 0.85 0.78 0.84 0.84 0.86 0.91 0.97 1.05 1.20 1.30 1.46 1.59 1.61
1.75 1.78 1.76 1.76 1.80 1.85 1.83 1.78 1.66 1.57 1.50 1.43 1.30 1.25 1.24 1.24 1.29 1.29 1.16 1.06 1.01 1.05 1.19 1.42 1.57 1.67 1.66 1.59 1.46 1.34 1.19 1.05 0.96 0.95 1.01 1.01 1.04 1.11 1.17 1.29 1.44 1.49 1.44
1.73 1.64 1.56 1.48 1.47 1.49 1.48 1.49 1.53 1.39 1.39 1.30 1.21 1.12 1.05 1.09 1.13 1.06 0.96 0.91 0.93 1.01 1.10 1.27 1.52 1.71 1.77 1.84 1.81 1.69 1.50 1.32 1.21 1.17 1.14 1.12 1.14 1.12 1.16 1.30 1.47 1.53 1.42
1.60 1.50 1.43 1.38 1.36 1.30 1.26 1.27 1.32 1.32 1.25 1.17 1.18 1.11 0.99 1.00 0.93 0.90 0.89 0.87 0.86 0.89 0.96 1.08 1.22 1.38 1.56 1.74 1.81 1.78 1.62 1.49 1.50 1.46 1.35 1.29 1.32 1.33 1.32 1.39 1.51 1.60 1.59
1.43 1.48 1.35 1.27 1.31 1.28 1.24 1.22 1.23 1.25 1.24 1.16 1.11 1.09 0.90 0.81 0.79 0.79 0.81 0.80 0.74 0.76 0.84 0.93 1.03 1.17 1.35 1.60 1.75 1.80 1.76 1.66 1.64 1.65 1.59 1.52 1.50 1.47 1.41 1.38 1.48 1.56 1.59
1.26 1.27 1.23 1.21 1.21 1.21 1.20 1.17 1.15 1.15 1.18 1.14 1.05 1.06 0.99 0.85 0.79 0.81 0.87 0.83 0.79 0.78 0.86 0.90 0.95 1.08 1.23 1.45 1.67 1.82 1.84 1.75 1.66 1.70 1.70 1.60 1.56 1.52 1.40 1.31 1.37 1.53 1.59
1.12 1.23 1.13 1.12 1.15 1.17 1.19 1.22 1.18 1.19 1.22 1.18 1.10 1.07 1.05 0.95 0.88 0.95 1.03 1.08 1.01 0.97 0.97 0.98 1.05 1.15 1.29 1.50 1.68 1.75 1.77 1.75 1.70 1.72 1.70 1.61 1.55 1.51 1.39 1.33 1.34 1.39 1.42
1.03 1.05 1.07 1.01 1.03 1.07 1.09 1.13 1.14 1.15 1.16 1.13 1.05 1.02 0.96 0.90 0.99 1.09 1.18 1.20 1.14 1.08 1.04 1.02 1.05 1.14 1.31 1.50 1.62 1.72 1.73 1.74 1.72 1.69 1.67 1.60 1.54 1.53 1.49 1.45 1.40 1.40 1.44
1.02 0.93 0.92 0.96 1.08 1.10 1.11 1.13 1.12 1.10 1.11 1.12 1.12 1.11 1.08 0.97 1.05 1.13 1.21 1.27 1.26 1.23 1.18 1.13 1.09 1.15 1.26 1.39 1.55 1.67 1.69 1.67 1.67 1.67 1.63 1.59 1.56 1.54 1.55 1.55 1.51 1.49 1.51
1.05 1.03 1.00 1.03 1.13 1.21 1.21 1.20 1.18 1.16 1.17 1.17 1.13 1.12 1.15 1.14 1.17 1.24 1.29 1.33 1.31 1.27 1.21 1.18 1.16 1.18 1.23 1.28 1.37 1.48 1.54 1.53 1.52 1.53 1.58 1.55 1.52 1.51 1.53 1.55 1.52 1.52 1.49
0.98 1.02 1.01 1.05 1.10 1.14 1.17 1.19 1.15 1.11 1.10 1.12 1.16 1.21 1.23 1.27 1.30 1.34 1.31 1.27 1.20 1.16 1.16 1.14 1.13 1.14 1.18 1.25 1.29 1.28 1.30 1.33 1.30 1.31 1.35 1.39 1.40 1.40 1.44 1.45 1.49 1.54 1.59
0.81 0.94 1.03 1.04 1.03 1.06 1.06 1.03 1.03 1.07 1.11 1.19 1.23 1.26 1.29 1.31 1.31 1.25 1.17 1.11 1.03 1.02 1.04 1.05 1.04 1.00 1.00 1.03 1.05 1.07 1.18 1.19 1.17 1.16 1.17 1.20 1.22 1.27 1.33 1.35 1.41 1.52 1.64
0.74 0.86 0.95 0.98 0.97 1.01 1.07 1.06 1.03 1.08 1.16 1.17 1.20 1.22 1.22 1.23 1.23 1.16 1.09 1.06 1.03 1.00 1.00 1.00 0.96 0.88 0.87 0.87 0.86 0.88 0.87 0.84 0.90 0.99 1.00 1.04 1.11 1.20 1.26 1.30 1.34 1.44 1.54

GEFSGL_prec_meanprecacc_222.txt.gz
Total_Precipitation_Accumulation
0.96 1.00 1.06 1.15 1.19 1.25 1.30 1.31 1.28 1.22 1.21 1.25 1.29 1.31 1.32 1.36 1.47 1.55 1.50 1.73 1.86 1.88 1.71 1.61 1.55 1.55 1.54 1.40 1.42 1.50 1.58 1.79 1.79 1.45 1.39 1.54 1.64 1.54 1.56 1.50 1.38 1.39 1.30
0.86 1.01 1.06 1.17 1.19 1.17 1.22 1.41 1.41 1.36 1.35 1.37 1.41 1.49 1.46 1.44 1.51 1.51 1.42 1.51 1.70 1.89 2.08 2.13 1.92 1.84 1.78 1.62 1.60 1.58 1.60 1.73 1.80 1.71 1.63 1.71 1.74 1.66 1.62 1.44 1.20 1.13 1.18
0.76 0.90 1.04 1.13 1.20 1.29 1.44 1.60 1.68 1.61 1.59 1.63 1.67 1.61 1.60 1.61 1.58 1.52 1.51 1.57 1.68 1.75 1.94 2.12 2.13 2.20 1.96 1.89 1.80 1.73 1.69 1.65 1.79 1.75 1.65 1.82 1.86 1.83 1.70 1.39 1.25 1.27 1.14
0.98 1.11 1.20 1.36 1.50 1.58 1.60 1.70 1.73 1.76 1.80 1.81 1.82 1.77 1.73 1.76 1.74 1.68 1.65 1.65 1.71 1.72 1.73 1.78 1.91 2.15 2.12 2.10 1.97 1.95 1.95 1.94 1.97 1.90 1.82 1.92 2.10 2.15 1.97 1.62 1.45 1.39 1.27
1.31 1.36 1.39 1.48 1.60 1.74 1.91 1.95 1.96 1.98 1.94 2.04 2.00 1.91 1.89 1.89 1.75 1.81 1.95 1.96 2.01 1.85 1.75 1.69 1.68 1.89 1.99 2.00 1.81 1.87 2.01 2.06 2.09 2.06 2.01 2.06 2.13 2.23 1.98 1.72 1.53 1.49 1.43
1.78 1.87 1.94 2.01 2.08 2.14 2.18 2.18 2.25 2.26 2.21 2.12 2.03 2.04 2.02 1.84 1.96 2.00 1.91 1.97 2.13 2.12 2.00 1.93 1.80 1.73 1.73 1.77 1.81 1.84 1.90 1.91 1.94 1.98 1.95 1.99 2.06 2.13 2.21 2.03 1.78 1.61 1.47
1.88 1.96 2.05 2.12 2.20 2.25 2.27 2.30 2.25 2.24 2.19 2.09 2.10 2.14 2.08 2.10 2.06 1.84 1.71 1.72 1.78 1.88 1.96 1.95 1.73 1.60 1.70 1.64 1.78 1.81 1.71 1.65 1.62 1.69 1.74 1.81 2.16 2.37 2.56 2.29 2.03 1.84 1.62
1.85 1.93 1.96 2.00 2.05 2.17 2.28 2.23 2.14 2.12 2.10 2.08 2.07 1.97 1.89 1.86 1.87 1.66 1.60 1.54 1.51 1.48 1.59 1.71 1.68 1.60 1.59 1.63 1.57 1.41 1.33 1.34 1.34 1.26 1.31 1.53 1.86 2.30 2.53 2.53 2.46 2.22 1.97
1.51 1.61 1.67 1.78 1.94 2.07 2.15 2.19 2.19 2.12 1.97 1.86 1.78 1.75 1.71 1.74 1.85 1.63 1.53 1.47 1.51 1.41 1.40 1.40 1.41 1.33 1.42 1.42 1.34 1.20 1.12 1.11 1.14 1.14 1.13 1.27 1.51 1.80 2.16 2.32 2.25 2.04 1.74
1.65 1.73 1.82 1.92 2.04 2.05 2.14 2.24 2.24 2.17 2.12 2.07 1.92 1.84 1.78 1.72 1.82 1.57 1.43 1.38 1.43 1.40 1.41 1.43 1.52 1.36 1.27 1.14 1.08 1.09 0.98 0.94 1.02 1.00 0.98 1.03 1.13 1.35 1.72 1.84 1.84 1.83 1.64
1.71 1.75 1.80 1.86 1.95 2.03 2.16 2.14 2.17 2.15 2.07 1.95 1.83 1.73 1.70 1.65 1.60 1.39 1.26 1.16 1.18 1.19 1.16 1.16 1.28 1.30 1.10 0.95 0.93 0.92 0.87 0.87 0.93 0.89 0.85 0.86 0.96 1.10 1.27 1.53 1.63 1.58 1.47
1.77 1.84 1.83 1.88 1.92 1.94 1.99 1.96 1.95 1.92 1.85 1.78 1.74 1.71 1.70 1.64 1.45 1.26 1.12 1.05 1.06 1.05 1.14 1.17 1.29 1.34 1.11 0.96 0.84 0.76 0.75 0.69 0.73 0.81 0.79 0.78 0.84 0.95 1.15 1.38 1.58 1.59 1.45
1.81 1.90 1.98 1.99 1.99 2.03 2.11 2.13 2.01 1.90 1.81 1.74 1.67 1.53 1.47 1.49 1.46 1.28 1.09 1.01 1.03 1.01 1.20 1.44 1.46 1.41 1.23 1.00 0.91 0.90 0.80 0.68 0.72 0.76 0.77 0.74 0.77 0.90 1.14 1.41 1.60 1.73 1.63
1.82 1.84 1.92 2.01 2.07 2.10 2.11 2.06 1.94 1.82 1.73 1.65 1.55 1.46 1.45 1.45 1.40 1.33 1.21 1.10 1.09 1.09 1.22 1.41 1.52 1.54 1.42 1.25 1.16 1.07 0.87 0.80 0.86 0.87 0.89 0.94 1.01 1.09 1.23 1.35 1.51 1.64 1.66
1.80 1.84 1.83 1.84 1.89 1.94 1.95 1.89 1.77 1.68 1.60 1.52 1.41 1.37 1.36 1.35 1.38 1.36 1.22 1.11 1.05 1.09 1.22 1.44 1.60 1.69 1.68 1.61 1.47 1.36 1.21 1.07 0.97 0.97 1.03 1.04 1.08 1.16 1.21 1.34 1.50 1.57 1.50
1.78 1.71 1.63 1.54 1.53 1.55 1.52 1.54 1.59 1.47 1.45 1.35 1.26 1.18 1.15 1.19 1.21 1.13 1.03 0.99 1.00 1.08 1.15 1.32 1.55 1.74 1.80 1.87 1.83 1.71 1.51 1.33 1.23 1.19 1.16 1.15 1.17 1.17 1.21 1.36 1.53 1.60 1.48
1.64 1.55 1.49 1.45 1.42 1.35 1.30 1.30 1.36 1.35 1.28 1.19 1.21 1.14 1.03 1.07 1.01 0.96 0.95 0.92 0.92 0.95 1.04 1.16 1.28 1.42 1.60 1.78 1.84 1.81 1.64 1.52 1.54 1.50 1.38 1.33 1.36 1.38 1.38 1.45 1.58 1.66 1.64
1.45 1.50 1.38 1.31 1.35 1.33 1.29 1.26 1.27 1.29 1.27 1.18 1.13 1.11 0.92 0.85 0.85 0.85 0.85 0.83 0.77 0.79 0.87 0.99 1.11 1.23 1.38 1.63 1.78 1.84 1.80 1.71 1.68 1.68 1.63 1.56 1.53 1.50 1.45 1.42 1.52 1.61 1.64
1.28 1.31 1.28 1.26 1.26 1.26 1.26 1.23 1.20 1.19 1.22 1.16 1.07 1.08 1.01 0.88 0.84 0.88 0.92 0.86 0.80 0.80 0.88 0.93 0.98 1.11 1.26 1.48 1.70 1.84 1.86 1.77 1.68 1.72 1.72 1.63 1.58 1.54 1.42 1.34 1.41 1.57 1.65
1.15 1.26 1.18 1.16 1.18 1.21 1.25 1.28 1.24 1.25 1.27 1.22 1.12 1.10 1.08 0.99 0.92 1.01 1.09 1.11 1.04 0.98 0.99 1.01 1.08 1.19 1.33 1.55 1.73 1.80 1.81 1.78 1.73 1.74 1.71 1.62 1.57 1.54 1.42 1.36 1.38 1.44 1.46
1.06 1.08 1.11 1.06 1.07 1.12 1.15 1.21 1.22 1.23 1.23 1.18 1.10 1.07 1.02 0.95 1.04 1.14 1.23 1.25 1.19 1.12 1.08 1.06 1.10 1.19 1.37 1.57 1.69 1.78 1.78 1.77 1.75 1.72 1.68 1.61 1.57 1.56 1.52 1.49 1.44 1.44 1.48
1.06 0.98 0.97 1.01 1.13 1.15 1.18 1.22 1.25 1.21 1.20 1.20 1.20 1.17 1.14 1.02 1.10 1.18 1.25 1.32 1.31 1.28 1.23 1.18 1.15 1.21 1.32 1.46 1.61 1.73 1.73 1.71 1.70 1.69 1.65 1.61 1.58 1.56 1.58 1.58 1.54 1.53 1.54
1.11 1.08 1.06 1.07 1.18 1.25 1.27 1.32 1.32 1.30 1.29 1.27 1.23 1.19 1.20 1.18 1.22 1.30 1.34 1.37 1.35 1.31 1.26 1.23 1.22 1.23 1.29 1.33 1.42 1.53 1.58 1.57 1.55 1.56 1.60 1.57 1.54 1.54 1.56 1.57 1.55 1.56 1.53
1.01 1.07 1.08 1.12 1.17 1.19 1.22 1.25 1.24 1.22 1.21 1.22 1.24 1.28 1.29 1.31 1.34 1.38 1.36 1.32 1.25 1.21 1.22 1.19 1.18 1.19 1.21 1.28 1.32 1.30 1.33 1.35 1.32 1.33 1.37 1.41 1.42 1.43 1.47 1.48 1.52 1.57 1.62
0.87 1.00 1.10 1.13 1.11 1.14 1.13 1.08 1.08 1.14 1.21 1.28 1.30 1.33 1.35 1.36 1.37 1.30 1.23 1.16 1.09 1.07 1.10 1.09 1.07 1.03 1.02 1.05 1.07 1.08 1.20 1.21 1.19 1.18 1.19 1.22 1.25 1.29 1.35 1.38 1.44 1.55 1.67
0.84 0.93 1.02 1.07 1.07 1.10 1.16 1.13 1.08 1.13 1.24 1.26 1.30 1.30 1.29 1.30 1.30 1.23 1.15 1.10 1.07 1.03 1.03 1.03 0.99 0.91 0.89 0.89 0.88 0.90 0.89 0.86 0.92 1.01 1.02 1.06 1.13 1.22 1.28 1.32 1.36 1.47 1.58

GEFSGL_prec_meanprecacc_228.txt.gz
Total_Precipitation_Accumulation
1.01 1.06 1.11 1.19 1.23 1.28 1.33 1.34 1.33 1.30 1.32 1.34 1.39 1.42 1.42 1.45 1.59 1.66 1.57 1.77 1.89 1.92 1.74 1.64 1.57 1.57 1.56 1.44 1.46 1.55 1.61 1.82 1.81 1.46 1.40 1.55 1.65 1.55 1.58 1.53 1.40 1.40 1.31
0.93 1.06 1.10 1.22 1.24 1.21 1.25 1.45 1.48 1.45 1.43 1.43 1.46 1.55 1.53 1.54 1.63 1.58 1.46 1.53 1.72 1.91 2.10 2.15 1.94 1.85 1.79 1.64 1.63 1.62 1.64 1.78 1.83 1.73 1.64 1.71 1.75 1.68 1.65 1.47 1.22 1.14 1.19
0.82 0.95 1.09 1.18 1.26 1.35 1.48 1.66 1.76 1.69 1.64 1.67 1.70 1.65 1.65 1.66 1.62 1.54 1.53 1.58 1.69 1.77 1.95 2.13 2.14 2.22 1.99 1.92 1.84 1.76 1.73 1.70 1.83 1.77 1.66 1.84 1.88 1.85 1.72 1.41 1.27 1.29 1.15
1.03 1.15 1.23 1.39 1.55 1.64 1.66 1.76 1.79 1.80 1.84 1.84 1.85 1.79 1.75 1.78 1.75 1.70 1.67 1.66 1.72 1.73 1.75 1.80 1.92 2.17 2.15 2.13 2.00 1.98 2.00 1.98 2.02 1.94 1.84 1.94 2.12 2.16 1.98 1.63 1.48 1.41 1.29
1.35 1.40 1.42 1.52 1.64 1.79 1.96 2.01 2.02 2.03 1.97 2.07 2.03 1.94 1.91 1.91 1.77 1.83 1.97 1.97 2.02 1.87 1.77 1.71 1.70 1.92 2.02 2.03 1.84 1.90 2.05 2.10 2.12 2.09 2.04 2.09 2.15 2.26 2.00 1.74 1.56 1.52 1.45
1.83 1.92 2.00 2.07 2.14 2.21 2.26 2.26 2.32 2.32 2.26 2.16 2.07 2.07 2.06 1.87 1.98 2.02 1.94 2.00 2.15 2.15 2.03 1.96 1.83 1.76 1.76 1.81 1.85 1.89 1.94 1.94 1.97 2.02 1.98 2.01 2.09 2.17 2.25 2.06 1.81 1.63 1.49
1.92 2.01 2.12 2.20 2.28 2.33 2.35 2.37 2.32 2.31 2.26 2.16 2.16 2.20 2.13 2.16 2.12 1.90 1.77 1.77 1.83 1.92 2.00 1.99 1.77 1.64 1.76 1.69 1.84 1.86 1.75 1.68 1.65 1.72 1.76 1.82 2.18 2.40 2.60 2.33 2.08 1.87 1.65
1.90 2.00 2.03 2.07 2.12 2.25 2.39 2.36 2.25 2.22 2.20 2.18 2.16 2.06 1.99 1.95 1.96 1.75 1.69 1.62 1.59 1.57 1.67 1.77 1.74 1.65 1.64 1.69 1.63 1.46 1.35 1.36 1.36 1.29 1.33 1.55 1.89 2.35 2.58 2.58 2.52 2.28 2.01
1.56 1.67 1.72 1.84 2.01 2.14 2.23 2.27 2.28 2.22 2.07 1.97 1.89 1.84 1.81 1.85 1.97 1.76 1.66 1.58 1.62 1.50 1.48 1.47 1.47 1.39 1.47 1.49 1.39 1.24 1.14 1.13 1.17 1.18 1.16 1.31 1.55 1.86 2.22 2.38 2.31 2.11 1.80
1.71 1.78 1.86 1.95 2.08 2.10 2.20 2.29 2.29 2.23 2.18 2.14 2.00 1.93 1.90 1.86 1.97 1.72 1.58 1.50 1.52 1.47 1.47 1.49 1.58 1.41 1.31 1.19 1.11 1.12 1.00 0.96 1.05 1.03 1.01 1.07 1.18 1.41 1.79 1.90 1.90 1.90 1.70
1.76 1.79 1.81 1.88 1.98 2.07 2.21 2.19 2.23 2.21 2.14 2.01 1.87 1.78 1.75 1.73 1.71 1.52 1.39 1.28 1.26 1.25 1.20 1.20 1.31 1.34 1.14 0.98 0.96 0.95 0.90 0.91 0.97 0.93 0.88 0.89 1.00 1.14 1.32 1.59 1.70 1.64 1.53
1.82 1.88 1.86 1.91 1.95 1.98 2.03 2.00 2.00 1.99 1.91 1.84 1.80 1.76 1.74 1.68 1.52 1.34 1.21 1.13 1.13 1.10 1.18 1.21 1.32 1.38 1.15 1.00 0.86 0.79 0.79 0.74 0.77 0.84 0.82 0.80 0.87 0.98 1.19 1.43 1.66 1.67 1.52
1.86 1.95 2.01 2.03 2.02 2.07 2.15 2.17 2.06 1.96 1.88 1.80 1.72 1.57 1.52 1.54 1.52 1.37 1.17 1.08 1.09 1.05 1.23 1.47 1.49 1.44 1.26 1.03 0.95 0.93 0.83 0.71 0.75 0.79 0.79 0.76 0.80 0.93 1.19 1.46 1.66 1.80 1.72
1.87 1.89 1.98 2.07 2.13 2.15 2.16 2.11 2.00 1.88 1.78 1.70 1.60 1.53 1.52 1.52 1.46 1.39 1.28 1.17 1.17 1.16 1.27 1.46 1.56 1.57 1.46 1.30 1.21 1.11 0.91 0.84 0.89 0.89 0.91 0.96 1.04 1.14 1.29 1.42 1.59 1.71 1.74
1.85 1.90 1.89 1.89 1.95 2.00 2.01 1.95 1.83 1.73 1.65 1.57 1.47 1.44 1.43 1.41 1.44 1.42 1.28 1.19 1.14 1.19 1.33 1.54 1.68 1.76 1.75 1.67 1.54 1.42 1.26 1.12 1.01 1.00 1.05 1.06 1.10 1.18 1.24 1.38 1.56 1.63 1.56
1.84 1.77 1.69 1.60 1.58 1.60 1.58 1.60 1.64 1.52 1.51 1.40 1.31 1.25 1.23 1.25 1.27 1.20 1.10 1.06 1.09 1.17 1.25 1.41 1.65 1.83 1.89 1.95 1.92 1.79 1.57 1.38 1.27 1.23 1.19 1.17 1.19 1.19 1.24 1.39 1.56 1.64 1.53
1.71 1.62 1.55 1.51 1.49 1.40 1.34 1.34 1.39 1.38 1.31 1.23 1.24 1.17 1.07 1.12 1.07 1.02 1.01 0.99 0.98 1.00 1.08 1.21 1.33 1.47 1.65 1.85 1.91 1.87 1.68 1.56 1.58 1.53 1.41 1.36 1.39 1.41 1.41 1.48 1.62 1.70 1.68
1.52 1.58 1.46 1.37 1.41 1.38 1.33 1.29 1.30 1.31 1.30 1.20 1.16 1.15 0.96 0.90 0.91 0.91 0.91 0.89 0.81 0.81 0.89 1.02 1.15 1.30 1.47 1.72 1.87 1.91 1.85 1.76 1.74 1.74 1.69 1.62 1.60 1.57 1.51 1.47 1.56 1.65 1.68
1.35 1.39 1.36 1.34 1.33 1.32 1.30 1.26 1.23 1.22 1.25 1.19 1.09 1.12 1.06 0.93 0.90 0.94 0.97 0.90 0.83 0.82 0.90 0.94 1.01 1.15 1.31 1.54 1.77 1.93 1.95 1.86 1.77 1.80 1.78 1.70 1.66 1.63 1.51 1.41 1.46 1.61 1.69
1.20 1.34 1.27 1.27 1.29 1.28 1.30 1.31 1.26 1.27 1.28 1.24 1.15 1.13 1.13 1.05 0.98 1.07 1.15 1.16 1.07 1.01 1.01 1.02 1.09 1.21 1.36 1.57 1.76 1.84 1.86 1.84 1.79 1.80 1.78 1.68 1.62 1.59 1.47 1.41 1.41 1.46 1.49
1.09 1.11 1.16 1.10 1.11 1.15 1.17 1.23 1.24 1.24 1.24 1.20 1.12 1.11 1.06 1.00 1.10 1.20 1.30 1.32 1.25 1.16 1.10 1.08 1.12 1.21 1.40 1.60 1.73 1.81 1.81 1.81 1.79 1.75 1.72 1.65 1.60 1.59 1.55 1.52 1.47 1.47 1.51
1.07 0.99 0.99 1.03 1.15 1.17 1.20 1.23 1.26 1.22 1.21 1.22 1.22 1.20 1.19 1.07 1.16 1.25 1.32 1.39 1.40 1.37 1.30 1.23 1.19 1.26 1.36 1.49 1.64 1.76 1.76 1.74 1.73 1.73 1.69 1.64 1.61 1.59 1.61 1.60 1.57 1.55 1.57
1.12 1.09 1.07 1.09 1.20 1.28 1.29 1.34 1.34 1.32 1.30 1.29 1.26 1.23 1.24 1.24 1.28 1.36 1.42 1.47 1.45 1.43 1.38 1.32 1.28 1.29 1.34 1.38 1.46 1.56 1.62 1.60 1.58 1.60 1.64 1.60 1.57 1.56 1.58 1.59 1.57 1.58 1.55
1.04 1.09 1.09 1.13 1.18 1.21 1.24 1.27 1.26 1.24 1.23 1.24 1.28 1.34 1.36 1.38 1.42 1.47 1.44 1.41 1.36 1.32 1.33 1.31 1.28 1.27 1.28 1.33 1.36 1.34 1.36 1.39 1.36 1.37 1.41 1.45 1.46 1.45 1.49 1.50 1.54 1.59 1.65
0.92 1.03 1.13 1.15 1.13 1.16 1.14 1.09 1.09 1.15 1.22 1.31 1.34 1.37 1.42 1.44 1.44 1.38 1.31 1.24 1.16 1.15 1.18 1.18 1.17 1.12 1.10 1.10 1.11 1.12 1.23 1.25 1.22 1.21 1.22 1.26 1.28 1.32 1.37 1.40 1.45 1.57 1.70
0.93 1.00 1.06 1.10 1.08 1.11 1.17 1.14 1.09 1.14 1.26 1.30 1.34 1.34 1.33 1.34 1.35 1.30 1.23 1.18 1.13 1.09 1.09 1.11 1.07 0.98 0.95 0.94 0.92 0.94 0.93 0.89 0.95 1.04 1.06 1.09 1.17 1.25 1.30 1.33 1.37 1.49 1.60

GEFSGL_prec_meanprecacc_234.txt.gz
Total_Precipitation_Accumulation
1.03 1.08 1.13 1.21 1.25 1.30 1.34 1.36 1.34 1.31 1.34 1.37 1.40 1.43 1.44 1.48 1.63 1.71 1.61 1.81 1.93 1.95 1.77 1.67 1.61 1.62 1.62 1.49 1.51 1.60 1.66 1.86 1.85 1.50 1.44 1.57 1.67 1.58 1.61 1.56 1.43 1.44 1.33
0.95 1.09 1.14 1.25 1.27 1.24 1.27 1.47 1.50 1.47 1.46 1.45 1.48 1.56 1.54 1.56 1.66 1.61 1.48 1.55 1.74 1.94 2.13 2.19 1.97 1.89 1.85 1.70 1.68 1.66 1.68 1.82 1.87 1.77 1.68 1.75 1.78 1.72 1.68 1.50 1.26 1.18 1.23
0.85 0.99 1.16 1.24 1.32 1.39 1.52 1.70 1.79 1.72 1.67 1.69 1.72 1.66 1.66 1.68 1.63 1.56 1.55 1.60 1.71 1.79 1.98 2.16 2.17 2.25 2.03 1.97 1.88 1.80 1.76 1.72 1.86 1.81 1.69 1.87 1.90 1.87 1.75 1.43 1.30 1.32 1.18
1.06 1.19 1.29 1.47 1.61 1.68 1.69 1.78 1.81 1.83 1.86 1.86 1.87 1.80 1.77 1.80 1.77 1.72 1.69 1.69 1.75 1.75 1.77 1.83 1.95 2.20 2.19 2.18 2.04 2.02 2.03 2.01 2.05 1.98 1.89 1.99 2.17 2.21 2.02 1.66 1.51 1.44 1.33
1.38 1.43 1.45 1.56 1.67 1.81 1.98 2.02 2.03 2.04 1.99 2.08 2.04 1.95 1.92 1.93 1.78 1.85 2.00 2.00 2.05 1.90 1.81 1.74 1.72 1.95 2.05 2.06 1.86 1.92 2.08 2.13 2.16 2.12 2.08 2.13 2.20 2.31 2.05 1.80 1.62 1.58 1.52
1.86 1.95 2.03 2.12 2.19 2.25 2.29 2.28 2.34 2.33 2.27 2.17 2.08 2.08 2.07 1.89 2.00 2.05 1.97 2.03 2.19 2.18 2.06 1.98 1.86 1.79 1.78 1.83 1.87 1.91 1.97 1.97 2.01 2.05 2.01 2.04 2.12 2.22 2.31 2.12 1.87 1.71 1.57
1.96 2.05 2.17 2.25 2.36 2.43 2.44 2.42 2.35 2.33 2.28 2.18 2.17 2.21 2.14 2.18 2.14 1.91 1.78 1.79 1.85 1.95 2.03 2.02 1.81 1.67 1.78 1.72 1.87 1.89 1.78 1.71 1.68 1.75 1.79 1.85 2.22 2.46 2.66 2.38 2.13 1.92 1.70
1.94 2.04 2.08 2.14 2.22 2.34 2.46 2.40 2.28 2.24 2.21 2.18 2.17 2.07 2.00 1.97 1.97 1.75 1.70 1.64 1.62 1.59 1.71 1.81 1.77 1.68 1.67 1.73 1.67 1.50 1.38 1.38 1.39 1.32 1.36 1.58 1.93 2.40 2.63 2.63 2.58 2.33 2.06
1.59 1.69 1.75 1.88 2.05 2.18 2.27 2.29 2.30 2.24 2.08 1.98 1.89 1.85 1.81 1.85 1.97 1.76 1.67 1.60 1.64 1.53 1.51 1.51 1.51 1.42 1.51 1.53 1.44 1.28 1.19 1.16 1.20 1.20 1.19 1.34 1.58 1.90 2.26 2.42 2.35 2.15 1.84
1.73 1.80 1.87 1.97 2.10 2.14 2.22 2.31 2.31 2.25 2.20 2.15 2.02 1.95 1.91 1.87 1.99 1.75 1.62 1.54 1.58 1.54 1.52 1.54 1.62 1.45 1.34 1.23 1.15 1.17 1.05 0.99 1.07 1.05 1.03 1.09 1.20 1.44 1.82 1.94 1.94 1.94 1.74
1.78 1.81 1.83 1.90 2.00 2.10 2.24 2.23 2.26 2.24 2.16 2.03 1.90 1.82 1.79 1.75 1.75 1.57 1.46 1.35 1.36 1.36 1.30 1.26 1.36 1.38 1.18 1.02 1.00 0.99 0.94 0.95 1.00 0.96 0.91 0.91 1.02 1.17 1.34 1.61 1.73 1.69 1.58
1.85 1.90 1.88 1.94 1.98 2.02 2.08 2.07 2.06 2.05 1.97 1.90 1.87 1.82 1.78 1.72 1.55 1.38 1.25 1.17 1.19 1.19 1.30 1.31 1.39 1.44 1.20 1.04 0.90 0.83 0.83 0.79 0.81 0.88 0.86 0.83 0.89 1.00 1.21 1.46 1.69 1.72 1.58
1.89 1.97 2.04 2.07 2.07 2.12 2.21 2.24 2.13 2.03 1.96 1.88 1.82 1.67 1.60 1.61 1.59 1.42 1.21 1.12 1.12 1.10 1.32 1.58 1.58 1.52 1.32 1.08 0.98 0.96 0.87 0.76 0.80 0.84 0.84 0.80 0.83 0.96 1.22 1.49 1.69 1.84 1.76
1.90 1.92 2.01 2.11 2.18 2.20 2.21 2.15 2.04 1.90 1.82 1.75 1.66 1.59 1.58 1.59 1.52 1.44 1.32 1.21 1.20 1.19 1.31 1.53 1.64 1.65 1.53 1.36 1.26 1.15 0.94 0.87 0.93 0.93 0.96 1.01 1.08 1.18 1.33 1.46 1.63 1.76 1.79
1.89 1.94 1.92 1.93 1.99 2.04 2.05 1.99 1.86 1.76 1.67 1.61 1.51 1.48 1.47 1.45 1.48 1.45 1.31 1.21 1.17 1.21 1.36 1.59 1.73 1.83 1.84 1.76 1.61 1.49 1.34 1.19 1.06 1.03 1.10 1.11 1.15 1.22 1.29 1.42 1.62 1.70 1.62
1.90 1.81 1.73 1.64 1.62 1.63 1.61 1.63 1.68 1.55 1.54 1.43 1.34 1.28 1.25 1.27 1.29 1.21 1.11 1.07 1.11 1.19 1.28 1.45 1.69 1.87 1.94 2.01 2.00 1.88 1.65 1.46 1.34 1.31 1.27 1.23 1.24 1.24 1.29 1.44 1.63 1.71 1.59
1.80 1.67 1.59 1.55 1.54 1.46 1.40 1.39 1.45 1.44 1.35 1.25 1.26 1.19 1.09 1.13 1.08 1.03 1.02 1.00 1.00 1.03 1.11 1.25 1.37 1.51 1.69 1.89 1.98 1.96 1.76 1.62 1.63 1.59 1.48 1.43 1.46 1.47 1.48 1.56 1.70 1.78 1.75
1.62 1.65 1.51 1.43 1.48 1.45 1.39 1.35 1.36 1.37 1.34 1.23 1.18 1.16 0.98 0.92 0.92 0.93 0.94 0.91 0.83 0.84 0.93 1.05 1.20 1.36 1.52 1.78 1.93 1.97 1.91 1.81 1.80 1.81 1.75 1.68 1.67 1.64 1.59 1.56 1.66 1.73 1.74
1.43 1.48 1.45 1.42 1.40 1.39 1.37 1.32 1.28 1.26 1.28 1.21 1.12 1.14 1.09 0.95 0.92 0.96 0.99 0.93 0.86 0.85 0.93 0.98 1.05 1.21 1.38 1.61 1.84 2.00 2.01 1.90 1.81 1.83 1.82 1.74 1.71 1.70 1.59 1.51 1.57 1.72 1.78
1.26 1.40 1.36 1.35 1.37 1.36 1.38 1.39 1.32 1.31 1.31 1.25 1.16 1.15 1.15 1.07 0.99 1.08 1.16 1.17 1.09 1.04 1.05 1.07 1.14 1.26 1.41 1.63 1.83 1.92 1.94 1.91 1.85 1.85 1.81 1.72 1.66 1.63 1.51 1.46 1.47 1.54 1.57
1.12 1.15 1.21 1.15 1.17 1.23 1.24 1.30 1.30 1.29 1.28 1.22 1.13 1.12 1.08 1.02 1.12 1.22 1.32 1.34 1.27 1.19 1.15 1.13 1.17 1.26 1.45 1.65 1.78 1.88 1.89 1.89 1.86 1.81 1.77 1.69 1.63 1.62 1.59 1.55 1.51 1.52 1.56
1.09 1.01 1.02 1.07 1.20 1.22 1.25 1.28 1.30 1.27 1.25 1.24 1.23 1.22 1.20 1.08 1.17 1.26 1.33 1.41 1.41 1.40 1.34 1.29 1.26 1.32 1.42 1.55 1.70 1.81 1.82 1.79 1.78 1.78 1.75 1.69 1.66 1.64 1.65 1.65 1.61 1.61 1.63
1.15 1.11 1.09 1.11 1.23 1.31 1.33 1.37 1.37 1.36 1.34 1.32 1.28 1.25 1.26 1.25 1.29 1.37 1.43 1.48 1.47 1.45 1.42 1.38 1.34 1.35 1.40 1.44 1.51 1.61 1.66 1.64 1.62 1.64 1.69 1.66 1.63 1.62 1.64 1.65 1.62 1.63 1.61
1.08 1.13 1.13 1.16 1.20 1.23 1.26 1.29 1.29 1.26 1.26 1.27 1.31 1.36 1.38 1.39 1.44 1.48 1.46 1.43 1.38 1.35 1.36 1.34 1.33 1.32 1.34 1.39 1.41 1.38 1.40 1.42 1.39 1.40 1.45 1.51 1.53 1.53 1.57 1.57 1.60 1.65 1.70
0.96 1.07 1.17 1.19 1.16 1.18 1.16 1.12 1.11 1.17 1.25 1.33 1.36 1.39 1.44 1.47 1.47 1.41 1.33 1.26 1.18 1.18 1.21 1.21 1.21 1.17 1.15 1.16 1.17 1.18 1.29 1.30 1.27 1.25 1.26 1.31 1.35 1.40 1.46 1.48 1.53 1.64 1.76
0.96 1.03 1.09 1.13 1.11 1.15 1.21 1.18 1.12 1.17 1.28 1.32 1.36 1.36 1.35 1.37 1.38 1.33 1.25 1.20 1.16 1.13 1.13 1.14 1.10 1.02 1.00 0.99 0.98 1.00 0.99 0.95 1.00 1.09 1.10 1.14 1.22 1.31 1.37 1.41 1.45 1.56 1.67

GEFSGL_prec_meanprecacc_240.txt.gz
Total_Precipitation_Accumulation
1.05 1.10 1.15 1.24 1.29 1.35 1.38 1.40 1.38 1.35 1.37 1.40 1.44 1.47 1.48 1.52 1.67 1.76 1.65 1.85 1.97 2.01 1.83 1.73 1.67 1.68 1.68 1.54 1.56 1.65 1.71 1.92 1.90 1.53 1.48 1.60 1.71 1.61 1.65 1.59 1.48 1.50 1.37
0.97 1.11 1.16 1.28 1.31 1.27 1.31 1.51 1.55 1.51 1.48 1.47 1.51 1.60 1.58 1.60 1.70 1.65 1.52 1.61 1.80 2.01 2.19 2.24 2.02 1.95 1.92 1.75 1.72 1.70 1.73 1.88 1.93 1.82 1.72 1.79 1.82 1.75 1.72 1.52 1.28 1.20 1.25
0.88 1.01 1.18 1.27 1.34 1.43 1.56 1.73 1.82 1.75 1.69 1.72 1.76 1.71 1.71 1.73 1.68 1.61 1.60 1.65 1.77 1.85 2.05 2.23 2.22 2.30 2.09 2.02 1.92 1.83 1.79 1.77 1.92 1.86 1.73 1.91 1.93 1.91 1.79 1.46 1.32 1.34 1.20
1.08 1.21 1.31 1.49 1.63 1.72 1.72 1.81 1.84 1.85 1.89 1.89 1.91 1.84 1.80 1.84 1.80 1.75 1.72 1.72 1.79 1.80 1.83 1.89 2.01 2.25 2.24 2.23 2.08 2.06 2.07 2.06 2.11 2.04 1.95 2.06 2.22 2.25 2.08 1.71 1.54 1.48 1.35
1.40 1.44 1.47 1.58 1.70 1.85 2.02 2.06 2.07 2.07 2.01 2.11 2.07 1.98 1.94 1.95 1.80 1.87 2.03 2.03 2.10 1.96 1.87 1.81 1.79 2.03 2.12 2.12 1.91 1.98 2.13 2.18 2.21 2.18 2.16 2.21 2.26 2.38 2.11 1.85 1.66 1.63 1.56
1.88 1.97 2.06 2.15 2.23 2.29 2.34 2.34 2.39 2.37 2.30 2.20 2.10 2.10 2.09 1.90 2.01 2.06 1.98 2.04 2.22 2.22 2.11 2.04 1.93 1.88 1.87 1.90 1.93 1.97 2.03 2.03 2.06 2.10 2.07 2.10 2.17 2.28 2.38 2.19 1.94 1.77 1.62
2.00 2.10 2.21 2.29 2.40 2.49 2.51 2.50 2.41 2.37 2.31 2.20 2.19 2.22 2.16 2.19 2.15 1.92 1.78 1.79 1.87 1.98 2.06 2.05 1.84 1.71 1.84 1.78 1.94 1.97 1.83 1.76 1.73 1.81 1.84 1.90 2.27 2.52 2.73 2.45 2.20 1.99 1.75
2.00 2.12 2.16 2.23 2.31 2.45 2.58 2.49 2.34 2.28 2.23 2.20 2.19 2.09 2.03 1.98 1.98 1.76 1.71 1.65 1.63 1.61 1.74 1.84 1.81 1.72 1.72 1.77 1.73 1.56 1.44 1.44 1.44 1.36 1.41 1.62 1.98 2.45 2.70 2.69 2.64 2.40 2.13
1.67 1.80 1.87 2.01 2.18 2.32 2.38 2.37 2.35 2.28 2.11 2.01 1.92 1.88 1.84 1.88 2.00 1.78 1.70 1.62 1.66 1.56 1.55 1.55 1.55 1.46 1.54 1.57 1.48 1.33 1.24 1.21 1.25 1.25 1.24 1.39 1.63 1.94 2.31 2.47 2.40 2.21 1.89
1.81 1.89 1.97 2.06 2.19 2.23 2.31 2.39 2.37 2.29 2.24 2.19 2.06 1.99 1.94 1.91 2.04 1.81 1.67 1.58 1.64 1.61 1.60 1.61 1.67 1.48 1.38 1.26 1.20 1.21 1.08 1.02 1.12 1.10 1.08 1.14 1.25 1.49 1.88 1.98 1.98 1.99 1.79
1.89 1.91 1.93 1.99 2.09 2.17 2.32 2.30 2.33 2.31 2.24 2.11 1.97 1.88 1.85 1.83 1.82 1.62 1.49 1.38 1.40 1.41 1.34 1.30 1.38 1.40 1.20 1.05 1.03 1.02 0.97 0.98 1.04 1.01 0.95 0.94 1.06 1.21 1.39 1.65 1.78 1.73 1.63
1.95 2.00 1.98 2.05 2.08 2.11 2.17 2.15 2.15 2.13 2.04 1.96 1.93 1.90 1.89 1.81 1.61 1.42 1.27 1.19 1.20 1.22 1.33 1.34 1.42 1.46 1.22 1.07 0.93 0.86 0.87 0.83 0.84 0.91 0.89 0.86 0.92 1.03 1.24 1.50 1.74 1.77 1.62
1.95 2.04 2.11 2.15 2.17 2.21 2.30 2.31 2.19 2.09 2.02 1.93 1.86 1.72 1.67 1.70 1.65 1.46 1.24 1.14 1.15 1.12 1.34 1.61 1.63 1.58 1.37 1.12 1.03 1.01 0.92 0.80 0.83 0.87 0.86 0.83 0.86 1.00 1.26 1.54 1.76 1.92 1.83
1.94 1.97 2.06 2.18 2.26 2.31 2.31 2.24 2.10 1.95 1.87 1.79 1.70 1.62 1.61 1.63 1.57 1.48 1.35 1.24 1.22 1.21 1.32 1.54 1.67 1.69 1.59 1.42 1.32 1.23 1.01 0.92 0.97 0.97 0.99 1.04 1.12 1.24 1.39 1.52 1.69 1.83 1.87
1.93 1.98 1.96 1.97 2.03 2.09 2.11 2.05 1.91 1.80 1.72 1.65 1.55 1.52 1.50 1.48 1.50 1.48 1.34 1.24 1.19 1.23 1.37 1.60 1.74 1.85 1.88 1.82 1.69 1.57 1.42 1.26 1.13 1.08 1.13 1.14 1.19 1.28 1.35 1.50 1.69 1.77 1.70
1.96 1.86 1.77 1.67 1.65 1.67 1.65 1.69 1.75 1.62 1.60 1.47 1.38 1.30 1.27 1.30 1.30 1.22 1.12 1.09 1.13 1.21 1.29 1.46 1.70 1.89 1.96 2.05 2.06 1.95 1.73 1.53 1.41 1.36 1.32 1.29 1.31 1.30 1.35 1.52 1.71 1.80 1.68
1.86 1.72 1.62 1.58 1.57 1.49 1.44 1.43 1.50 1.49 1.39 1.29 1.29 1.22 1.11 1.15 1.09 1.04 1.04 1.02 1.02 1.05 1.13 1.26 1.38 1.52 1.70 1.92 2.02 2.01 1.81 1.67 1.68 1.64 1.55 1.52 1.54 1.55 1.56 1.65 1.81 1.90 1.87
1.69 1.71 1.55 1.46 1.51 1.50 1.43 1.39 1.40 1.43 1.39 1.28 1.23 1.21 1.02 0.94 0.94 0.94 0.95 0.93 0.85 0.86 0.95 1.07 1.21 1.37 1.54 1.80 1.95 2.00 1.95 1.86 1.85 1.87 1.83 1.77 1.75 1.71 1.66 1.63 1.75 1.84 1.87
1.52 1.54 1.49 1.45 1.43 1.44 1.43 1.37 1.31 1.30 1.31 1.24 1.16 1.19 1.14 1.00 0.95 0.98 1.01 0.94 0.88 0.87 0.96 1.01 1.07 1.22 1.40 1.63 1.87 2.02 2.04 1.94 1.86 1.91 1.89 1.81 1.79 1.79 1.69 1.60 1.66 1.82 1.90
1.36 1.48 1.41 1.42 1.43 1.40 1.43 1.44 1.37 1.35 1.34 1.28 1.19 1.19 1.19 1.11 1.03 1.11 1.19 1.20 1.11 1.06 1.07 1.09 1.16 1.28 1.43 1.66 1.86 1.95 1.97 1.94 1.88 1.89 1.87 1.79 1.74 1.71 1.60 1.54 1.55 1.62 1.67
1.22 1.22 1.26 1.21 1.26 1.33 1.33 1.36 1.36 1.36 1.33 1.26 1.17 1.16 1.12 1.04 1.15 1.26 1.37 1.39 1.31 1.22 1.18 1.16 1.20 1.29 1.47 1.67 1.81 1.91 1.92 1.92 1.92 1.89 1.86 1.78 1.73 1.72 1.67 1.63 1.58 1.60 1.64
1.17 1.07 1.07 1.11 1.24 1.29 1.33 1.36 1.39 1.36 1.33 1.31 1.28 1.26 1.24 1.11 1.21 1.30 1.37 1.44 1.44 1.42 1.37 1.32 1.29 1.35 1.44 1.57 1.72 1.84 1.85 1.83 1.83 1.84 1.82 1.78 1.77 1.76 1.79 1.78 1.74 1.72 1.74
1.19 1.16 1.14 1.16 1.27 1.35 1.37 1.42 1.44 1.45 1.43 1.41 1.35 1.31 1.31 1.30 1.34 1.40 1.46 1.50 1.49 1.48 1.44 1.40 1.36 1.38 1.43 1.46 1.53 1.64 1.70 1.69 1.66 1.68 1.74 1.71 1.67 1.67 1.70 1.72 1.71 1.72 1.70
1.11 1.17 1.17 1.20 1.25 1.27 1.30 1.33 1.33 1.31 1.31 1.33 1.37 1.42 1.43 1.43 1.48 1.52 1.49 1.45 1.40 1.37 1.39 1.36 1.35 1.34 1.37 1.42 1.44 1.41 1.42 1.45 1.42 1.44 1.49 1.55 1.57 1.58 1.61 1.62 1.66 1.72 1.77
1.01 1.13 1.21 1.23 1.20 1.21 1.20 1.15 1.15 1.20 1.28 1.36 1.39 1.42 1.48 1.51 1.51 1.46 1.37 1.30 1.22 1.21 1.24 1.24 1.23 1.19 1.18 1.20 1.20 1.20 1.32 1.33 1.30 1.28 1.29 1.34 1.38 1.43 1.49 1.51 1.57 1.69 1.82
1.01 1.08 1.14 1.16 1.15 1.18 1.24 1.21 1.15 1.20 1.30 1.34 1.38 1.38 1.38 1.40 1.41 1.36 1.28 1.24 1.20 1.16 1.16 1.17 1.12 1.04 1.02 1.02 1.01 1.05 1.04 0.99 1.04 1.13 1.14 1.17 1.25 1.34 1.40 1.43 1.48 1.60 1.72

GEFSGL_prec_meanprecacc_246.txt.gz
Total_Precipitation_Accumulation
1.07 1.12 1.18 1.26 1.33 1.40 1.43 1.43 1.42 1.39 1.40 1.43 1.47 1.51 1.51 1.55 1.71 1.81 1.72 1.92 2.03 2.07 1.89 1.80 1.72 1.71 1.71 1.57 1.59 1.69 1.75 1.97 1.92 1.54 1.49 1.63 1.73 1.63 1.68 1.63 1.53 1.55 1.41
1.04 1.18 1.22 1.33 1.36 1.34 1.36 1.56 1.59 1.56 1.53 1.52 1.55 1.64 1.62 1.64 1.74 1.70 1.59 1.68 1.87 2.06 2.24 2.30 2.07 1.99 1.95 1.79 1.76 1.74 1.76 1.92 1.96 1.84 1.74 1.81 1.84 1.78 1.75 1.57 1.31 1.23 1.28
0.96 1.10 1.26 1.33 1.38 1.46 1.59 1.76 1.87 1.79 1.74 1.76 1.80 1.75 1.75 1.77 1.72 1.65 1.65 1.70 1.82 1.89 2.08 2.26 2.26 2.35 2.12 2.06 1.96 1.87 1.83 1.81 1.96 1.89 1.75 1.94 1.97 1.94 1.84 1.50 1.36 1.36 1.22
1.13 1.26 1.36 1.54 1.67 1.75 1.75 1.84 1.87 1.88 1.92 1.92 1.94 1.88 1.84 1.87 1.84 1.79 1.76 1.75 1.81 1.82 1.85 1.91 2.04 2.30 2.28 2.27 2.12 2.10 2.12 2.10 2.17 2.09 1.98 2.09 2.27 2.30 2.13 1.76 1.59 1.51 1.37
1.46 1.48 1.51 1.61 1.73 1.88 2.05 2.10 2.10 2.09 2.04 2.14 2.10 2.01 1.98 1.98 1.83 1.90 2.06 2.05 2.11 1.96 1.88 1.82 1.81 2.05 2.15 2.16 1.94 2.01 2.18 2.22 2.25 2.22 2.20 2.26 2.31 2.42 2.14 1.89 1.72 1.67 1.59
1.96 2.03 2.11 2.19 2.27 2.34 2.40 2.40 2.44 2.41 2.33 2.23 2.12 2.12 2.11 1.92 2.03 2.09 2.00 2.05 2.23 2.23 2.12 2.05 1.94 1.90 1.89 1.92 1.96 2.00 2.07 2.07 2.10 2.15 2.11 2.14 2.21 2.32 2.41 2.24 1.98 1.82 1.65
2.09 2.16 2.26 2.34 2.45 2.54 2.57 2.57 2.47 2.42 2.36 2.24 2.22 2.24 2.18 2.21 2.17 1.94 1.79 1.80 1.88 1.99 2.07 2.06 1.85 1.73 1.86 1.80 1.96 1.99 1.86 1.79 1.77 1.85 1.88 1.92 2.30 2.55 2.78 2.49 2.24 2.03 1.78
2.23 2.27 2.27 2.30 2.39 2.53 2.65 2.56 2.39 2.33 2.29 2.25 2.22 2.11 2.05 2.00 2.00 1.78 1.73 1.67 1.64 1.62 1.74 1.85 1.82 1.74 1.75 1.81 1.77 1.58 1.46 1.46 1.48 1.40 1.45 1.66 2.02 2.51 2.76 2.75 2.69 2.44 2.16
1.98 2.09 2.07 2.15 2.31 2.43 2.47 2.45 2.42 2.34 2.17 2.05 1.96 1.91 1.86 1.91 2.03 1.82 1.73 1.64 1.68 1.57 1.56 1.56 1.57 1.48 1.57 1.61 1.52 1.37 1.26 1.24 1.28 1.29 1.28 1.43 1.69 2.01 2.38 2.54 2.45 2.25 1.92
1.95 2.10 2.22 2.29 2.39 2.40 2.45 2.55 2.53 2.44 2.37 2.29 2.13 2.03 1.99 1.96 2.09 1.86 1.71 1.60 1.66 1.62 1.61 1.62 1.69 1.51 1.41 1.30 1.23 1.24 1.11 1.04 1.14 1.13 1.12 1.18 1.29 1.55 1.95 2.04 2.03 2.03 1.81
1.97 2.04 2.14 2.25 2.37 2.51 2.66 2.62 2.59 2.52 2.42 2.25 2.07 1.96 1.93 1.90 1.89 1.68 1.54 1.40 1.41 1.42 1.35 1.31 1.39 1.41 1.22 1.06 1.05 1.04 0.99 0.99 1.05 1.01 0.96 0.97 1.09 1.25 1.43 1.72 1.85 1.80 1.68
2.05 2.12 2.15 2.26 2.28 2.34 2.41 2.38 2.35 2.36 2.31 2.25 2.22 2.16 2.09 1.95 1.71 1.49 1.33 1.23 1.23 1.23 1.34 1.35 1.42 1.47 1.23 1.08 0.94 0.86 0.88 0.84 0.85 0.92 0.90 0.88 0.94 1.05 1.27 1.54 1.80 1.84 1.70
2.04 2.13 2.24 2.27 2.29 2.35 2.44 2.46 2.38 2.30 2.24 2.14 2.05 1.89 1.85 1.86 1.77 1.53 1.29 1.18 1.17 1.13 1.35 1.62 1.64 1.58 1.38 1.13 1.03 1.02 0.93 0.81 0.85 0.89 0.88 0.85 0.88 1.02 1.28 1.56 1.79 1.96 1.89
2.02 2.05 2.16 2.27 2.37 2.44 2.44 2.37 2.23 2.07 1.99 1.92 1.81 1.72 1.72 1.74 1.65 1.55 1.40 1.28 1.27 1.24 1.34 1.56 1.68 1.70 1.60 1.43 1.33 1.24 1.03 0.95 1.00 1.00 1.02 1.06 1.14 1.26 1.43 1.55 1.72 1.86 1.91
2.02 2.06 2.03 2.04 2.09 2.16 2.20 2.18 2.05 1.92 1.81 1.74 1.65 1.62 1.60 1.58 1.58 1.55 1.38 1.27 1.23 1.27 1.40 1.63 1.76 1.87 1.89 1.82 1.69 1.59 1.46 1.32 1.20 1.16 1.19 1.19 1.22 1.31 1.38 1.52 1.72 1.80 1.73
2.03 1.92 1.82 1.71 1.68 1.69 1.69 1.75 1.85 1.75 1.71 1.56 1.46 1.40 1.36 1.39 1.38 1.28 1.16 1.12 1.16 1.24 1.32 1.49 1.72 1.91 1.97 2.06 2.06 1.96 1.75 1.56 1.44 1.41 1.37 1.33 1.33 1.32 1.37 1.53 1.73 1.83 1.72
1.90 1.76 1.65 1.61 1.59 1.51 1.46 1.46 1.54 1.56 1.50 1.39 1.38 1.29 1.18 1.22 1.15 1.07 1.05 1.03 1.03 1.08 1.15 1.27 1.40 1.54 1.72 1.93 2.03 2.01 1.81 1.68 1.70 1.66 1.58 1.54 1.56 1.57 1.57 1.67 1.83 1.92 1.89
1.72 1.74 1.57 1.48 1.54 1.52 1.46 1.42 1.43 1.46 1.45 1.37 1.35 1.30 1.09 0.99 0.98 0.97 0.97 0.94 0.86 0.87 0.96 1.09 1.23 1.38 1.55 1.81 1.96 2.00 1.96 1.87 1.88 1.90 1.86 1.80 1.78 1.73 1.68 1.65 1.77 1.86 1.88
1.56 1.58 1.53 1.48 1.45 1.46 1.45 1.39 1.34 1.32 1.35 1.29 1.23 1.27 1.20 1.05 0.99 1.01 1.02 0.95 0.88 0.87 0.96 1.01 1.08 1.23 1.41 1.64 1.88 2.03 2.05 1.95 1.87 1.94 1.93 1.85 1.83 1.83 1.72 1.62 1.68 1.84 1.92
1.41 1.54 1.47 1.46 1.47 1.44 1.46 1.46 1.39 1.38 1.37 1.31 1.22 1.23 1.24 1.14 1.05 1.13 1.20 1.21 1.12 1.07 1.08 1.10 1.17 1.29 1.44 1.67 1.87 1.96 1.99 1.96 1.90 1.91 1.90 1.82 1.79 1.78 1.64 1.57 1.58 1.65 1.69
1.31 1.29 1.33 1.26 1.30 1.37 1.37 1.40 1.40 1.40 1.36 1.29 1.20 1.19 1.16 1.08 1.18 1.28 1.38 1.40 1.32 1.23 1.19 1.17 1.21 1.30 1.48 1.68 1.82 1.92 1.94 1.94 1.94 1.92 1.88 1.81 1.77 1.78 1.73 1.67 1.62 1.64 1.67
1.30 1.18 1.15 1.17 1.31 1.35 1.39 1.43 1.45 1.42 1.38 1.36 1.34 1.32 1.28 1.14 1.23 1.33 1.40 1.46 1.46 1.44 1.38 1.34 1.31 1.37 1.46 1.59 1.74 1.86 1.87 1.84 1.84 1.86 1.85 1.81 1.80 1.81 1.84 1.83 1.78 1.76 1.79
1.32 1.29 1.26 1.24 1.34 1.43 1.44 1.49 1.50 1.48 1.46 1.44 1.41 1.37 1.36 1.33 1.37 1.44 1.49 1.53 1.51 1.50 1.45 1.42 1.39 1.42 1.46 1.49 1.58 1.68 1.72 1.71 1.68 1.70 1.76 1.73 1.70 1.70 1.74 1.76 1.75 1.76 1.74
1.20 1.28 1.29 1.28 1.32 1.33 1.35 1.36 1.36 1.33 1.33 1.34 1.39 1.46 1.48 1.49 1.54 1.58 1.55 1.50 1.44 1.41 1.41 1.39 1.37 1.38 1.41 1.45 1.47 1.44 1.46 1.49 1.46 1.46 1.51 1.57 1.60 1.60 1.64 1.65 1.69 1.75 1.80
1.08 1.23 1.32 1.29 1.24 1.25 1.23 1.17 1.16 1.22 1.30 1.37 1.40 1.45 1.52 1.55 1.56 1.51 1.44 1.36 1.28 1.27 1.30 1.28 1.27 1.22 1.21 1.22 1.22 1.22 1.34 1.35 1.32 1.30 1.31 1.36 1.40 1.46 1.52 1.54 1.60 1.71 1.85
1.07 1.16 1.22 1.22 1.19 1.21 1.26 1.22 1.16 1.21 1.32 1.36 1.40 1.39 1.39 1.42 1.44 1.39 1.31 1.27 1.23 1.20 1.21 1.23 1.18 1.09 1.06 1.05 1.04 1.07 1.06 1.01 1.05 1.14 1.16 1.19 1.28 1.37 1.43 1.46 1.50 1.62 1.74

GEFSGL_prec_meanprecacc_252.txt.gz
Total_Precipitation_Accumulation
1.09 1.15 1.20 1.29 1.36 1.43 1.45 1.46 1.44 1.41 1.43 1.45 1.50 1.54 1.56 1.61 1.77 1.87 1.77 1.97 2.08 2.11 1.92 1.83 1.75 1.75 1.74 1.60 1.62 1.72 1.80 2.02 1.94 1.55 1.50 1.64 1.74 1.64 1.69 1.67 1.58 1.59 1.44
1.07 1.22 1.27 1.39 1.44 1.39 1.40 1.59 1.63 1.59 1.56 1.55 1.59 1.69 1.67 1.70 1.80 1.77 1.64 1.72 1.90 2.08 2.26 2.31 2.09 2.01 1.97 1.82 1.79 1.76 1.80 1.97 1.99 1.85 1.75 1.82 1.85 1.79 1.76 1.59 1.37 1.28 1.31
1.01 1.14 1.31 1.39 1.45 1.54 1.67 1.83 1.92 1.84 1.79 1.80 1.84 1.79 1.81 1.84 1.79 1.71 1.69 1.74 1.85 1.92 2.10 2.28 2.28 2.38 2.14 2.08 1.99 1.90 1.86 1.84 1.99 1.91 1.77 1.96 1.98 1.96 1.86 1.52 1.38 1.39 1.25
1.16 1.30 1.41 1.59 1.72 1.79 1.81 1.90 1.93 1.93 1.96 1.95 1.97 1.91 1.88 1.93 1.90 1.85 1.82 1.80 1.85 1.85 1.87 1.93 2.07 2.32 2.30 2.29 2.15 2.13 2.14 2.12 2.19 2.11 2.01 2.11 2.29 2.32 2.15 1.77 1.61 1.53 1.40
1.49 1.53 1.56 1.68 1.81 1.95 2.12 2.16 2.14 2.13 2.07 2.17 2.13 2.04 2.02 2.03 1.89 1.99 2.15 2.12 2.17 2.01 1.91 1.85 1.83 2.07 2.16 2.17 1.96 2.02 2.19 2.24 2.27 2.24 2.21 2.28 2.33 2.45 2.17 1.92 1.75 1.70 1.61
1.99 2.09 2.19 2.27 2.34 2.40 2.46 2.47 2.50 2.46 2.38 2.27 2.17 2.18 2.16 1.98 2.10 2.17 2.08 2.13 2.28 2.27 2.14 2.07 1.96 1.92 1.91 1.94 1.97 2.01 2.08 2.08 2.12 2.16 2.13 2.17 2.23 2.34 2.45 2.27 2.02 1.85 1.67
2.17 2.26 2.38 2.45 2.55 2.64 2.68 2.68 2.55 2.48 2.42 2.30 2.28 2.29 2.22 2.26 2.22 1.99 1.85 1.87 1.93 2.02 2.09 2.07 1.87 1.74 1.88 1.82 1.98 2.00 1.87 1.81 1.79 1.88 1.91 1.94 2.32 2.58 2.81 2.52 2.27 2.06 1.81
2.32 2.37 2.39 2.42 2.48 2.62 2.76 2.66 2.48 2.42 2.37 2.33 2.29 2.17 2.10 2.05 2.05 1.83 1.80 1.74 1.70 1.67 1.78 1.87 1.84 1.76 1.77 1.84 1.79 1.60 1.48 1.47 1.50 1.43 1.47 1.68 2.05 2.53 2.78 2.78 2.72 2.47 2.18
2.06 2.17 2.15 2.27 2.45 2.53 2.55 2.54 2.53 2.45 2.28 2.16 2.05 2.00 1.94 1.99 2.13 1.92 1.83 1.71 1.73 1.62 1.61 1.60 1.60 1.50 1.59 1.64 1.55 1.39 1.28 1.25 1.30 1.31 1.30 1.45 1.71 2.04 2.41 2.57 2.48 2.28 1.93
2.03 2.20 2.31 2.39 2.52 2.54 2.57 2.66 2.64 2.55 2.48 2.42 2.27 2.16 2.09 2.05 2.18 1.93 1.78 1.66 1.71 1.68 1.67 1.67 1.72 1.53 1.43 1.33 1.26 1.27 1.14 1.06 1.15 1.14 1.13 1.19 1.30 1.56 1.97 2.06 2.05 2.06 1.84
2.03 2.11 2.21 2.32 2.46 2.63 2.78 2.73 2.69 2.63 2.53 2.35 2.16 2.04 1.99 1.97 1.95 1.74 1.60 1.45 1.46 1.48 1.41 1.37 1.45 1.47 1.27 1.10 1.09 1.07 1.01 1.01 1.06 1.02 0.97 0.98 1.10 1.25 1.43 1.72 1.85 1.81 1.70
2.11 2.17 2.20 2.31 2.33 2.40 2.48 2.45 2.44 2.45 2.42 2.35 2.30 2.23 2.16 2.02 1.77 1.54 1.39 1.28 1.28 1.28 1.39 1.41 1.49 1.53 1.28 1.11 0.96 0.88 0.89 0.85 0.86 0.93 0.91 0.88 0.94 1.05 1.27 1.54 1.81 1.85 1.72
2.09 2.19 2.29 2.32 2.33 2.40 2.51 2.52 2.46 2.38 2.33 2.23 2.13 1.97 1.95 1.98 1.90 1.64 1.37 1.24 1.23 1.18 1.39 1.67 1.68 1.63 1.42 1.15 1.05 1.03 0.94 0.82 0.85 0.90 0.89 0.86 0.89 1.02 1.28 1.57 1.80 1.97 1.91
2.06 2.10 2.21 2.31 2.40 2.49 2.49 2.40 2.27 2.12 2.05 1.97 1.86 1.77 1.77 1.80 1.72 1.65 1.50 1.36 1.34 1.30 1.39 1.62 1.74 1.74 1.63 1.45 1.35 1.25 1.04 0.96 1.01 1.01 1.03 1.08 1.15 1.27 1.43 1.56 1.73 1.87 1.93
2.05 2.09 2.06 2.07 2.13 2.20 2.24 2.21 2.08 1.95 1.85 1.79 1.69 1.67 1.65 1.64 1.65 1.63 1.46 1.34 1.30 1.33 1.46 1.68 1.81 1.91 1.92 1.85 1.72 1.61 1.48 1.33 1.21 1.17 1.21 1.20 1.24 1.33 1.39 1.54 1.74 1.82 1.75
2.07 1.94 1.84 1.74 1.71 1.72 1.72 1.77 1.88 1.77 1.74 1.60 1.50 1.44 1.41 1.45 1.46 1.38 1.27 1.20 1.24 1.33 1.40 1.54 1.76 1.93 2.00 2.08 2.09 1.98 1.77 1.58 1.45 1.42 1.39 1.35 1.36 1.36 1.41 1.57 1.77 1.87 1.74
1.95 1.79 1.68 1.64 1.62 1.54 1.48 1.48 1.56 1.58 1.52 1.44 1.43 1.34 1.23 1.27 1.22 1.16 1.16 1.13 1.13 1.18 1.26 1.38 1.48 1.58 1.75 1.96 2.06 2.03 1.83 1.70 1.71 1.67 1.59 1.56 1.58 1.60 1.60 1.70 1.87 1.97 1.91
1.78 1.79 1.62 1.53 1.58 1.56 1.50 1.45 1.46 1.48 1.46 1.39 1.40 1.36 1.15 1.04 1.02 1.03 1.04 1.01 0.92 0.94 1.03 1.18 1.32 1.46 1.61 1.85 2.00 2.03 1.98 1.89 1.89 1.92 1.88 1.82 1.82 1.78 1.71 1.68 1.80 1.88 1.90
1.63 1.65 1.61 1.56 1.53 1.53 1.51 1.43 1.36 1.34 1.37 1.31 1.25 1.32 1.26 1.10 1.03 1.05 1.06 0.99 0.92 0.92 1.00 1.05 1.11 1.26 1.44 1.67 1.91 2.06 2.07 1.97 1.89 1.95 1.94 1.86 1.86 1.87 1.76 1.67 1.72 1.88 1.94
1.51 1.64 1.57 1.55 1.54 1.49 1.50 1.49 1.42 1.40 1.38 1.33 1.25 1.28 1.29 1.18 1.09 1.17 1.24 1.24 1.16 1.10 1.12 1.13 1.20 1.32 1.47 1.69 1.89 1.98 2.00 1.98 1.92 1.93 1.91 1.84 1.82 1.80 1.67 1.60 1.62 1.69 1.72
1.38 1.39 1.44 1.33 1.36 1.42 1.41 1.43 1.43 1.43 1.39 1.32 1.24 1.24 1.19 1.11 1.21 1.31 1.40 1.42 1.35 1.26 1.21 1.19 1.23 1.32 1.50 1.71 1.85 1.95 1.96 1.97 1.96 1.94 1.90 1.83 1.80 1.80 1.75 1.70 1.67 1.69 1.71
1.37 1.24 1.22 1.23 1.36 1.41 1.44 1.47 1.49 1.46 1.43 1.42 1.40 1.38 1.32 1.18 1.28 1.37 1.43 1.49 1.48 1.45 1.40 1.35 1.33 1.39 1.48 1.61 1.77 1.89 1.89 1.87 1.87 1.88 1.87 1.83 1.83 1.84 1.88 1.87 1.81 1.80 1.82
1.37 1.33 1.30 1.29 1.40 1.50 1.51 1.54 1.55 1.53 1.50 1.50 1.47 1.43 1.40 1.36 1.40 1.47 1.53 1.56 1.54 1.53 1.49 1.45 1.42 1.44 1.48 1.51 1.61 1.72 1.77 1.76 1.71 1.72 1.79 1.76 1.72 1.73 1.77 1.80 1.79 1.80 1.77
1.23 1.31 1.32 1.31 1.36 1.38 1.41 1.43 1.42 1.37 1.36 1.37 1.43 1.50 1.51 1.52 1.56 1.61 1.57 1.52 1.45 1.42 1.43 1.41 1.39 1.39 1.42 1.47 1.49 1.47 1.51 1.56 1.51 1.49 1.55 1.60 1.63 1.63 1.67 1.67 1.73 1.79 1.84
1.11 1.26 1.34 1.31 1.26 1.29 1.29 1.23 1.21 1.26 1.32 1.40 1.42 1.47 1.54 1.57 1.58 1.53 1.46 1.38 1.30 1.29 1.32 1.31 1.29 1.24 1.23 1.25 1.25 1.24 1.38 1.42 1.38 1.35 1.34 1.39 1.43 1.49 1.54 1.57 1.63 1.74 1.88
1.09 1.19 1.25 1.24 1.22 1.24 1.30 1.27 1.20 1.25 1.34 1.38 1.42 1.41 1.41 1.44 1.46 1.41 1.34 1.29 1.25 1.22 1.23 1.24 1.20 1.11 1.09 1.08 1.07 1.10 1.10 1.05 1.11 1.20 1.21 1.23 1.30 1.40 1.46 1.48 1.52 1.64 1.76

GEFSGL_prec_meanprecacc_258.txt.gz
Total_Precipitation_Accumulation
1.11 1.18 1.24 1.32 1.38 1.44 1.46 1.46 1.45 1.42 1.45 1.48 1.54 1.58 1.59 1.65 1.82 1.93 1.81 2.02 2.13 2.17 1.97 1.88 1.82 1.82 1.82 1.68 1.69 1.79 1.86 2.08 2.01 1.60 1.53 1.67 1.77 1.68 1.73 1.69 1.64 1.65 1.47
1.08 1.23 1.29 1.42 1.46 1.41 1.41 1.60 1.63 1.60 1.57 1.57 1.63 1.72 1.71 1.73 1.85 1.81 1.68 1.76 1.95 2.13 2.31 2.37 2.14 2.06 2.02 1.87 1.84 1.81 1.85 2.02 2.04 1.90 1.79 1.84 1.87 1.81 1.78 1.62 1.40 1.33 1.35
1.01 1.15 1.32 1.40 1.47 1.55 1.68 1.84 1.93 1.86 1.81 1.83 1.87 1.83 1.85 1.89 1.85 1.75 1.75 1.80 1.90 1.98 2.16 2.34 2.34 2.42 2.19 2.13 2.04 1.96 1.91 1.88 2.03 1.94 1.80 1.99 2.00 1.97 1.87 1.54 1.43 1.44 1.29
1.16 1.31 1.42 1.61 1.74 1.81 1.82 1.92 1.95 1.95 1.98 1.98 2.01 1.95 1.93 1.97 1.94 1.89 1.87 1.87 1.93 1.93 1.95 2.01 2.14 2.39 2.37 2.36 2.21 2.18 2.18 2.15 2.22 2.14 2.03 2.13 2.30 2.33 2.17 1.79 1.65 1.57 1.44
1.51 1.54 1.57 1.70 1.83 1.98 2.14 2.18 2.17 2.16 2.10 2.20 2.18 2.09 2.06 2.07 1.93 2.03 2.19 2.17 2.23 2.07 1.97 1.91 1.90 2.13 2.22 2.22 2.00 2.06 2.22 2.27 2.30 2.27 2.24 2.30 2.35 2.47 2.18 1.93 1.76 1.72 1.64
2.02 2.12 2.20 2.28 2.37 2.44 2.51 2.52 2.55 2.51 2.44 2.34 2.23 2.23 2.21 2.02 2.14 2.20 2.11 2.15 2.31 2.31 2.19 2.11 2.00 1.96 1.95 1.98 2.02 2.05 2.12 2.11 2.15 2.18 2.15 2.19 2.25 2.36 2.47 2.29 2.04 1.87 1.70
2.20 2.30 2.41 2.47 2.59 2.68 2.73 2.73 2.61 2.54 2.47 2.34 2.31 2.32 2.25 2.29 2.25 2.02 1.88 1.90 1.96 2.05 2.12 2.11 1.90 1.77 1.91 1.85 2.01 2.03 1.90 1.83 1.81 1.90 1.92 1.96 2.34 2.60 2.84 2.55 2.31 2.09 1.84
2.36 2.42 2.45 2.47 2.53 2.68 2.82 2.73 2.56 2.49 2.43 2.37 2.33 2.21 2.14 2.09 2.10 1.87 1.84 1.77 1.73 1.70 1.81 1.91 1.88 1.79 1.80 1.87 1.81 1.62 1.49 1.49 1.51 1.43 1.48 1.70 2.07 2.56 2.81 2.81 2.74 2.49 2.20
2.10 2.24 2.23 2.34 2.52 2.60 2.61 2.59 2.58 2.52 2.35 2.23 2.12 2.06 2.01 2.05 2.19 1.97 1.87 1.74 1.77 1.65 1.63 1.62 1.62 1.53 1.63 1.66 1.57 1.41 1.30 1.27 1.30 1.31 1.30 1.46 1.72 2.05 2.42 2.58 2.50 2.29 1.95
2.07 2.25 2.36 2.45 2.58 2.61 2.63 2.70 2.68 2.59 2.54 2.50 2.35 2.25 2.17 2.13 2.26 2.00 1.84 1.70 1.74 1.71 1.69 1.70 1.74 1.55 1.46 1.36 1.29 1.30 1.16 1.08 1.17 1.16 1.14 1.19 1.31 1.57 1.97 2.06 2.06 2.07 1.86
2.07 2.15 2.26 2.37 2.51 2.69 2.84 2.77 2.72 2.66 2.56 2.39 2.22 2.11 2.06 2.04 2.03 1.82 1.66 1.50 1.50 1.52 1.44 1.39 1.47 1.50 1.29 1.13 1.10 1.09 1.03 1.03 1.09 1.04 0.99 0.99 1.11 1.26 1.44 1.73 1.86 1.83 1.73
2.14 2.19 2.23 2.35 2.37 2.44 2.52 2.50 2.48 2.48 2.45 2.39 2.34 2.28 2.21 2.08 1.85 1.63 1.46 1.34 1.34 1.33 1.43 1.45 1.53 1.57 1.30 1.13 0.98 0.89 0.91 0.87 0.88 0.95 0.92 0.89 0.96 1.06 1.28 1.55 1.82 1.86 1.74
2.11 2.20 2.30 2.34 2.36 2.44 2.55 2.56 2.49 2.42 2.36 2.27 2.18 2.01 1.99 2.02 1.94 1.69 1.43 1.31 1.29 1.24 1.45 1.72 1.74 1.69 1.46 1.19 1.07 1.05 0.96 0.84 0.87 0.91 0.90 0.87 0.90 1.03 1.29 1.58 1.81 1.99 1.93
2.07 2.11 2.23 2.34 2.43 2.53 2.54 2.45 2.31 2.16 2.08 2.02 1.91 1.82 1.81 1.85 1.76 1.69 1.54 1.41 1.39 1.35 1.43 1.66 1.79 1.80 1.68 1.49 1.39 1.29 1.07 0.98 1.03 1.03 1.05 1.09 1.17 1.29 1.45 1.57 1.75 1.89 1.94
2.06 2.11 2.09 2.10 2.16 2.24 2.28 2.25 2.12 2.00 1.90 1.84 1.73 1.70 1.68 1.67 1.69 1.67 1.49 1.38 1.33 1.36 1.49 1.72 1.86 1.96 1.97 1.90 1.77 1.66 1.52 1.37 1.24 1.19 1.23 1.23 1.27 1.35 1.41 1.55 1.76 1.84 1.77
2.09 1.97 1.87 1.77 1.74 1.76 1.76 1.80 1.91 1.81 1.79 1.65 1.54 1.48 1.45 1.47 1.48 1.41 1.30 1.24 1.27 1.36 1.43 1.58 1.81 2.00 2.06 2.14 2.15 2.04 1.82 1.62 1.48 1.45 1.41 1.37 1.39 1.39 1.43 1.58 1.79 1.89 1.77
1.97 1.81 1.70 1.66 1.66 1.59 1.54 1.53 1.62 1.64 1.58 1.50 1.49 1.39 1.27 1.30 1.24 1.18 1.18 1.16 1.17 1.23 1.30 1.43 1.54 1.65 1.83 2.04 2.13 2.10 1.90 1.76 1.76 1.72 1.63 1.60 1.62 1.63 1.63 1.73 1.90 2.00 1.96
1.80 1.81 1.64 1.56 1.63 1.62 1.57 1.53 1.54 1.57 1.54 1.46 1.45 1.41 1.19 1.06 1.04 1.05 1.06 1.04 0.96 0.98 1.08 1.23 1.39 1.53 1.69 1.93 2.06 2.09 2.04 1.95 1.95 1.97 1.93 1.88 1.87 1.83 1.76 1.72 1.83 1.92 1.94
1.65 1.68 1.64 1.60 1.58 1.59 1.58 1.51 1.45 1.43 1.44 1.37 1.29 1.35 1.29 1.12 1.05 1.07 1.08 1.01 0.95 0.94 1.03 1.08 1.15 1.31 1.48 1.72 1.95 2.10 2.10 2.00 1.92 1.98 1.96 1.89 1.89 1.91 1.80 1.70 1.75 1.91 1.98
1.55 1.69 1.62 1.60 1.59 1.55 1.57 1.57 1.51 1.48 1.44 1.38 1.30 1.32 1.32 1.20 1.11 1.19 1.26 1.26 1.18 1.13 1.15 1.16 1.24 1.36 1.50 1.72 1.92 2.01 2.04 2.01 1.96 1.96 1.94 1.88 1.85 1.84 1.71 1.64 1.66 1.73 1.76
1.43 1.46 1.53 1.40 1.41 1.48 1.47 1.50 1.51 1.51 1.45 1.37 1.28 1.28 1.22 1.13 1.24 1.33 1.42 1.44 1.36 1.28 1.24 1.22 1.27 1.37 1.54 1.74 1.88 1.97 1.99 2.00 2.01 1.98 1.94 1.87 1.84 1.84 1.79 1.74 1.70 1.73 1.74
1.42 1.30 1.29 1.32 1.46 1.50 1.53 1.55 1.57 1.54 1.50 1.47 1.45 1.43 1.37 1.21 1.31 1.40 1.46 1.51 1.51 1.47 1.42 1.38 1.36 1.42 1.51 1.65 1.80 1.92 1.92 1.90 1.90 1.92 1.90 1.86 1.86 1.88 1.91 1.90 1.85 1.84 1.86
1.43 1.40 1.37 1.36 1.48 1.59 1.60 1.63 1.64 1.60 1.57 1.55 1.52 1.47 1.44 1.40 1.44 1.52 1.57 1.60 1.59 1.55 1.50 1.47 1.44 1.47 1.50 1.53 1.63 1.74 1.79 1.78 1.73 1.74 1.80 1.78 1.75 1.75 1.80 1.83 1.83 1.84 1.81
1.28 1.36 1.38 1.37 1.42 1.46 1.48 1.49 1.48 1.44 1.42 1.43 1.48 1.54 1.55 1.56 1.59 1.64 1.61 1.55 1.49 1.44 1.44 1.42 1.41 1.41 1.44 1.49 1.51 1.48 1.52 1.57 1.52 1.51 1.56 1.62 1.65 1.65 1.69 1.70 1.76 1.82 1.88
1.16 1.31 1.39 1.36 1.33 1.36 1.34 1.28 1.27 1.31 1.38 1.45 1.48 1.52 1.58 1.60 1.61 1.56 1.49 1.40 1.31 1.30 1.33 1.32 1.31 1.26 1.24 1.26 1.26 1.25 1.39 1.43 1.40 1.37 1.36 1.41 1.45 1.51 1.57 1.59 1.65 1.77 1.92
1.13 1.24 1.29 1.29 1.29 1.32 1.35 1.31 1.25 1.28 1.38 1.42 1.45 1.44 1.44 1.46 1.48 1.44 1.37 1.31 1.27 1.23 1.24 1.25 1.21 1.12 1.10 1.08 1.08 1.11 1.10 1.05 1.11 1.22 1.23 1.25 1.33 1.43 1.48 1.51 1.54 1.67 1.79

GEFSGL_prec_meanprecacc_264.txt.gz
Total_Precipitation_Accumulation
1.12 1.19 1.26 1.37 1.45 1.53 1.52 1.51 1.50 1.47 1.50 1.54 1.61 1.64 1.66 1.71 1.88 1.98 1.86 2.07 2.17 2.21 2.01 1.93 1.87 1.86 1.87 1.72 1.73 1.83 1.92 2.14 2.10 1.67 1.59 1.72 1.82 1.72 1.77 1.73 1.67 1.69 1.50
1.09 1.24 1.30 1.44 1.50 1.46 1.45 1.64 1.68 1.65 1.63 1.63 1.68 1.78 1.78 1.80 1.91 1.87 1.72 1.81 1.99 2.18 2.35 2.42 2.18 2.12 2.10 1.93 1.90 1.86 1.90 2.08 2.11 1.96 1.86 1.91 1.93 1.85 1.82 1.66 1.43 1.35 1.38
1.02 1.16 1.34 1.42 1.50 1.60 1.73 1.88 1.98 1.91 1.87 1.89 1.92 1.88 1.90 1.94 1.90 1.81 1.81 1.86 1.96 2.02 2.22 2.40 2.39 2.50 2.28 2.22 2.12 2.01 1.96 1.92 2.07 1.98 1.85 2.04 2.04 2.01 1.91 1.58 1.46 1.47 1.31
1.17 1.33 1.45 1.65 1.78 1.85 1.86 1.96 1.99 2.01 2.05 2.06 2.08 2.02 1.98 2.01 1.99 1.94 1.92 1.92 1.99 1.98 2.01 2.09 2.21 2.48 2.48 2.47 2.28 2.24 2.23 2.21 2.27 2.18 2.08 2.18 2.35 2.38 2.21 1.83 1.68 1.60 1.46
1.55 1.58 1.62 1.75 1.88 2.02 2.18 2.22 2.21 2.21 2.15 2.27 2.25 2.15 2.12 2.12 1.95 2.06 2.23 2.21 2.28 2.11 2.03 1.98 1.97 2.20 2.28 2.28 2.04 2.12 2.28 2.33 2.36 2.32 2.29 2.35 2.41 2.53 2.23 1.98 1.80 1.75 1.67
2.07 2.17 2.27 2.36 2.45 2.52 2.56 2.57 2.61 2.58 2.50 2.40 2.29 2.31 2.28 2.06 2.17 2.22 2.14 2.19 2.36 2.36 2.24 2.17 2.05 2.00 1.98 2.00 2.04 2.08 2.16 2.16 2.20 2.24 2.21 2.25 2.32 2.42 2.52 2.35 2.10 1.92 1.74
2.23 2.35 2.47 2.56 2.70 2.80 2.82 2.80 2.68 2.61 2.54 2.41 2.39 2.39 2.31 2.34 2.28 2.04 1.90 1.93 2.01 2.11 2.18 2.17 1.93 1.80 1.95 1.88 2.03 2.05 1.91 1.85 1.83 1.93 1.96 2.01 2.39 2.66 2.90 2.61 2.36 2.15 1.90
2.38 2.45 2.51 2.56 2.65 2.78 2.91 2.82 2.66 2.59 2.54 2.49 2.43 2.29 2.22 2.15 2.14 1.92 1.88 1.81 1.78 1.74 1.84 1.94 1.90 1.82 1.83 1.91 1.85 1.65 1.51 1.50 1.52 1.45 1.50 1.72 2.10 2.59 2.86 2.85 2.79 2.55 2.26
2.12 2.27 2.26 2.38 2.58 2.67 2.70 2.70 2.71 2.65 2.47 2.33 2.21 2.14 2.08 2.12 2.26 2.04 1.93 1.79 1.80 1.68 1.66 1.65 1.66 1.56 1.66 1.71 1.63 1.46 1.34 1.30 1.33 1.34 1.32 1.47 1.73 2.06 2.44 2.62 2.53 2.33 1.98
2.11 2.29 2.41 2.50 2.63 2.66 2.68 2.77 2.77 2.70 2.66 2.62 2.46 2.33 2.23 2.20 2.33 2.07 1.91 1.76 1.80 1.77 1.76 1.74 1.78 1.59 1.50 1.40 1.34 1.36 1.21 1.12 1.21 1.19 1.16 1.20 1.32 1.58 1.98 2.08 2.08 2.10 1.88
2.14 2.21 2.31 2.44 2.58 2.75 2.90 2.83 2.79 2.73 2.65 2.47 2.31 2.19 2.15 2.13 2.10 1.88 1.74 1.57 1.59 1.63 1.54 1.48 1.53 1.54 1.33 1.17 1.15 1.15 1.07 1.07 1.13 1.09 1.03 1.02 1.13 1.28 1.46 1.74 1.88 1.85 1.75
2.20 2.25 2.28 2.41 2.42 2.49 2.59 2.56 2.54 2.54 2.51 2.46 2.44 2.38 2.30 2.15 1.91 1.68 1.53 1.42 1.45 1.47 1.56 1.57 1.61 1.63 1.35 1.18 1.03 0.93 0.95 0.91 0.92 0.98 0.95 0.93 0.98 1.08 1.29 1.57 1.83 1.88 1.76
2.16 2.27 2.37 2.40 2.42 2.51 2.63 2.64 2.56 2.48 2.42 2.33 2.26 2.09 2.07 2.10 2.01 1.75 1.50 1.40 1.39 1.35 1.55 1.82 1.82 1.74 1.52 1.24 1.13 1.10 1.00 0.88 0.91 0.95 0.93 0.89 0.92 1.05 1.32 1.62 1.85 2.03 1.96
2.11 2.16 2.29 2.39 2.49 2.61 2.62 2.52 2.38 2.22 2.14 2.07 1.98 1.88 1.87 1.91 1.82 1.74 1.61 1.50 1.46 1.39 1.48 1.71 1.84 1.84 1.71 1.52 1.43 1.33 1.11 1.02 1.07 1.06 1.08 1.13 1.21 1.34 1.49 1.63 1.81 1.96 2.00
2.10 2.14 2.12 2.14 2.21 2.31 2.36 2.32 2.20 2.07 1.96 1.89 1.78 1.75 1.73 1.74 1.76 1.73 1.55 1.43 1.38 1.40 1.53 1.75 1.90 2.00 2.01 1.94 1.82 1.70 1.56 1.41 1.28 1.23 1.27 1.28 1.33 1.42 1.48 1.63 1.83 1.92 1.85
2.13 2.00 1.90 1.80 1.79 1.83 1.84 1.89 2.02 1.91 1.88 1.72 1.60 1.53 1.50 1.53 1.54 1.48 1.36 1.28 1.30 1.38 1.45 1.61 1.85 2.04 2.11 2.19 2.21 2.09 1.87 1.67 1.54 1.51 1.47 1.45 1.47 1.47 1.51 1.67 1.87 1.97 1.85
2.02 1.86 1.74 1.70 1.70 1.66 1.62 1.62 1.72 1.75 1.69 1.60 1.57 1.45 1.33 1.36 1.30 1.23 1.22 1.19 1.20 1.25 1.33 1.47 1.59 1.70 1.87 2.09 2.18 2.16 1.96 1.82 1.84 1.80 1.71 1.68 1.70 1.71 1.70 1.79 1.97 2.09 2.04
1.88 1.91 1.73 1.61 1.68 1.69 1.65 1.62 1.64 1.68 1.67 1.59 1.56 1.49 1.26 1.13 1.09 1.09 1.10 1.06 0.99 1.02 1.12 1.28 1.43 1.56 1.73 1.97 2.10 2.14 2.10 2.01 2.02 2.05 2.00 1.94 1.93 1.89 1.82 1.79 1.90 2.00 2.02
1.71 1.74 1.71 1.68 1.66 1.67 1.68 1.59 1.54 1.53 1.55 1.47 1.42 1.48 1.41 1.21 1.11 1.11 1.12 1.03 0.98 0.98 1.07 1.11 1.18 1.34 1.51 1.74 1.98 2.13 2.14 2.04 1.96 2.02 2.00 1.92 1.93 1.94 1.85 1.77 1.82 1.99 2.06
1.63 1.78 1.70 1.68 1.67 1.63 1.66 1.65 1.60 1.58 1.55 1.47 1.40 1.42 1.43 1.30 1.17 1.23 1.30 1.29 1.20 1.16 1.16 1.18 1.25 1.37 1.52 1.75 1.94 2.04 2.06 2.03 1.98 1.99 1.97 1.90 1.88 1.87 1.74 1.67 1.70 1.78 1.84
1.50 1.55 1.62 1.48 1.51 1.58 1.55 1.58 1.60 1.59 1.54 1.46 1.36 1.37 1.33 1.22 1.30 1.37 1.46 1.47 1.39 1.30 1.25 1.24 1.29 1.38 1.56 1.76 1.90 1.99 2.01 2.02 2.02 2.00 1.97 1.89 1.87 1.87 1.82 1.77 1.74 1.77 1.79
1.47 1.36 1.37 1.40 1.53 1.58 1.61 1.63 1.66 1.63 1.58 1.55 1.53 1.53 1.47 1.27 1.35 1.43 1.48 1.54 1.54 1.51 1.45 1.41 1.39 1.44 1.53 1.66 1.82 1.94 1.94 1.92 1.92 1.94 1.93 1.89 1.89 1.91 1.94 1.93 1.88 1.87 1.89
1.52 1.47 1.44 1.43 1.55 1.68 1.69 1.72 1.74 1.71 1.68 1.64 1.60 1.54 1.51 1.45 1.48 1.57 1.62 1.64 1.63 1.59 1.54 1.50 1.46 1.49 1.52 1.55 1.64 1.75 1.80 1.79 1.74 1.75 1.82 1.79 1.76 1.77 1.82 1.85 1.85 1.86 1.84
1.36 1.45 1.47 1.45 1.50 1.54 1.56 1.57 1.57 1.54 1.54 1.54 1.55 1.60 1.61 1.62 1.66 1.71 1.66 1.61 1.54 1.49 1.47 1.44 1.42 1.42 1.45 1.50 1.52 1.49 1.53 1.58 1.53 1.51 1.56 1.63 1.66 1.66 1.70 1.71 1.77 1.84 1.90
1.19 1.36 1.44 1.41 1.39 1.42 1.41 1.34 1.33 1.38 1.47 1.57 1.57 1.59 1.65 1.67 1.66 1.61 1.54 1.46 1.39 1.39 1.39 1.35 1.33 1.28 1.26 1.27 1.27 1.27 1.40 1.44 1.41 1.38 1.37 1.42 1.46 1.52 1.57 1.60 1.66 1.78 1.93
1.16 1.28 1.34 1.34 1.34 1.38 1.42 1.37 1.30 1.34 1.43 1.48 1.51 1.50 1.50 1.51 1.52 1.48 1.41 1.36 1.32 1.29 1.30 1.31 1.25 1.15 1.12 1.10 1.09 1.12 1.12 1.07 1.13 1.23 1.24 1.26 1.34 1.44 1.49 1.52 1.55 1.68 1.80

GEFSGL_prec_meanprecacc_270.txt.gz
Total_Precipitation_Accumulation
1.16 1.23 1.29 1.39 1.47 1.54 1.54 1.54 1.53 1.52 1.55 1.57 1.64 1.68 1.70 1.75 1.92 2.03 1.93 2.14 2.22 2.24 2.04 1.97 1.91 1.89 1.89 1.74 1.75 1.86 1.94 2.16 2.12 1.69 1.61 1.74 1.84 1.76 1.84 1.78 1.71 1.74 1.57
1.13 1.30 1.38 1.50 1.54 1.49 1.47 1.66 1.70 1.68 1.67 1.67 1.73 1.83 1.81 1.84 1.95 1.91 1.78 1.89 2.04 2.21 2.40 2.48 2.23 2.15 2.13 1.96 1.93 1.89 1.91 2.10 2.12 1.98 1.88 1.93 1.96 1.89 1.87 1.72 1.47 1.39 1.43
1.07 1.24 1.45 1.51 1.57 1.65 1.76 1.91 2.01 1.95 1.91 1.94 1.98 1.94 1.95 1.99 1.97 1.88 1.88 1.92 2.00 2.07 2.29 2.49 2.46 2.55 2.32 2.26 2.15 2.03 1.97 1.94 2.09 1.99 1.86 2.06 2.07 2.04 1.95 1.63 1.51 1.51 1.35
1.34 1.47 1.56 1.74 1.86 1.90 1.89 2.00 2.03 2.05 2.09 2.10 2.14 2.08 2.05 2.07 2.06 2.03 2.01 2.00 2.06 2.04 2.07 2.15 2.26 2.52 2.50 2.49 2.29 2.25 2.25 2.23 2.30 2.20 2.09 2.20 2.38 2.41 2.26 1.88 1.73 1.64 1.50
1.70 1.77 1.79 1.85 1.95 2.08 2.23 2.26 2.26 2.26 2.21 2.33 2.30 2.21 2.19 2.20 2.04 2.14 2.32 2.30 2.36 2.18 2.10 2.04 2.01 2.23 2.31 2.30 2.06 2.15 2.30 2.35 2.38 2.34 2.31 2.38 2.44 2.56 2.26 2.01 1.84 1.79 1.71
2.17 2.29 2.41 2.47 2.52 2.58 2.62 2.63 2.67 2.63 2.56 2.46 2.36 2.37 2.36 2.16 2.28 2.34 2.25 2.29 2.45 2.44 2.31 2.22 2.09 2.03 2.02 2.06 2.08 2.11 2.18 2.18 2.22 2.27 2.23 2.27 2.33 2.44 2.55 2.39 2.16 1.97 1.78
2.30 2.41 2.55 2.64 2.75 2.86 2.89 2.87 2.75 2.68 2.60 2.48 2.48 2.52 2.47 2.50 2.45 2.22 2.06 2.06 2.13 2.22 2.27 2.23 1.97 1.83 1.99 1.91 2.06 2.07 1.93 1.87 1.86 1.95 1.98 2.01 2.40 2.68 2.93 2.64 2.42 2.21 1.93
2.41 2.48 2.54 2.60 2.69 2.82 2.97 2.91 2.74 2.66 2.62 2.57 2.53 2.42 2.35 2.27 2.26 2.03 2.00 1.91 1.88 1.83 1.92 2.00 1.94 1.85 1.86 1.93 1.88 1.67 1.53 1.52 1.54 1.47 1.52 1.74 2.12 2.62 2.90 2.89 2.83 2.59 2.28
2.15 2.31 2.30 2.42 2.62 2.72 2.75 2.75 2.78 2.73 2.55 2.41 2.29 2.23 2.17 2.22 2.37 2.13 2.01 1.85 1.86 1.73 1.72 1.71 1.72 1.61 1.69 1.75 1.67 1.48 1.36 1.31 1.33 1.35 1.34 1.49 1.76 2.09 2.47 2.64 2.55 2.36 2.01
2.14 2.32 2.46 2.55 2.69 2.74 2.78 2.86 2.86 2.80 2.76 2.71 2.56 2.42 2.32 2.28 2.42 2.14 1.98 1.81 1.84 1.81 1.80 1.79 1.85 1.64 1.54 1.45 1.38 1.39 1.22 1.13 1.23 1.22 1.19 1.22 1.32 1.59 1.99 2.09 2.09 2.12 1.91
2.18 2.25 2.36 2.50 2.66 2.86 3.04 2.97 2.93 2.86 2.75 2.57 2.39 2.26 2.21 2.19 2.16 1.93 1.79 1.62 1.63 1.68 1.60 1.53 1.59 1.61 1.39 1.22 1.19 1.17 1.10 1.11 1.16 1.12 1.05 1.03 1.15 1.28 1.46 1.75 1.88 1.86 1.77
2.24 2.31 2.36 2.51 2.55 2.64 2.78 2.73 2.66 2.64 2.61 2.55 2.49 2.42 2.34 2.19 1.96 1.73 1.57 1.47 1.49 1.52 1.62 1.63 1.68 1.70 1.44 1.26 1.11 1.00 1.01 0.97 0.96 1.01 0.98 0.95 1.01 1.10 1.31 1.58 1.85 1.90 1.78
2.21 2.33 2.47 2.54 2.57 2.68 2.80 2.80 2.69 2.58 2.51 2.40 2.31 2.14 2.12 2.15 2.06 1.81 1.56 1.45 1.45 1.41 1.61 1.90 1.91 1.83 1.60 1.32 1.22 1.19 1.07 0.93 0.94 0.97 0.95 0.91 0.94 1.08 1.34 1.64 1.87 2.04 1.98
2.16 2.20 2.34 2.46 2.58 2.71 2.73 2.62 2.47 2.29 2.20 2.13 2.03 1.92 1.91 1.96 1.87 1.79 1.67 1.57 1.54 1.47 1.55 1.80 1.93 1.93 1.81 1.61 1.51 1.40 1.17 1.06 1.11 1.09 1.11 1.16 1.24 1.37 1.52 1.65 1.84 1.99 2.04
2.12 2.17 2.16 2.18 2.27 2.38 2.43 2.39 2.26 2.13 2.02 1.95 1.83 1.81 1.79 1.78 1.79 1.78 1.62 1.51 1.46 1.50 1.63 1.84 1.98 2.09 2.09 2.02 1.89 1.78 1.63 1.45 1.31 1.26 1.31 1.32 1.37 1.46 1.53 1.67 1.89 1.98 1.91
2.16 2.04 1.95 1.87 1.86 1.89 1.89 1.95 2.07 1.96 1.95 1.81 1.69 1.61 1.57 1.60 1.61 1.55 1.43 1.35 1.39 1.48 1.55 1.69 1.93 2.11 2.18 2.26 2.27 2.15 1.93 1.72 1.58 1.54 1.50 1.47 1.51 1.51 1.56 1.72 1.94 2.04 1.91
2.07 1.93 1.82 1.76 1.76 1.71 1.67 1.68 1.79 1.83 1.79 1.71 1.68 1.55 1.41 1.44 1.39 1.32 1.30 1.29 1.31 1.35 1.40 1.53 1.64 1.75 1.93 2.13 2.22 2.20 2.00 1.86 1.88 1.85 1.75 1.72 1.74 1.74 1.73 1.82 2.00 2.12 2.07
1.92 1.97 1.83 1.71 1.76 1.76 1.73 1.70 1.72 1.76 1.75 1.67 1.65 1.60 1.36 1.22 1.18 1.19 1.22 1.18 1.08 1.09 1.18 1.33 1.48 1.62 1.77 2.02 2.14 2.17 2.13 2.05 2.05 2.09 2.04 2.00 1.99 1.93 1.85 1.81 1.92 2.02 2.04
1.74 1.78 1.79 1.78 1.75 1.76 1.77 1.69 1.63 1.61 1.63 1.55 1.49 1.57 1.50 1.31 1.21 1.22 1.23 1.12 1.04 1.03 1.12 1.17 1.23 1.39 1.56 1.78 2.01 2.16 2.17 2.08 2.01 2.06 2.04 1.96 1.96 1.97 1.87 1.79 1.85 2.01 2.08
1.65 1.80 1.73 1.73 1.73 1.70 1.74 1.75 1.70 1.69 1.66 1.57 1.49 1.50 1.51 1.38 1.26 1.33 1.39 1.37 1.28 1.23 1.23 1.23 1.31 1.43 1.58 1.79 1.98 2.07 2.09 2.07 2.03 2.03 2.00 1.93 1.90 1.89 1.76 1.70 1.72 1.80 1.85
1.51 1.57 1.65 1.52 1.54 1.61 1.59 1.63 1.66 1.67 1.63 1.55 1.46 1.46 1.43 1.30 1.36 1.45 1.55 1.58 1.48 1.38 1.33 1.32 1.35 1.43 1.60 1.81 1.94 2.03 2.04 2.06 2.07 2.05 2.00 1.92 1.88 1.89 1.84 1.79 1.76 1.79 1.81
1.50 1.41 1.41 1.44 1.56 1.61 1.65 1.67 1.71 1.68 1.64 1.62 1.61 1.62 1.57 1.35 1.42 1.49 1.53 1.59 1.61 1.58 1.54 1.49 1.46 1.50 1.58 1.71 1.87 1.98 1.98 1.96 1.97 2.00 1.97 1.92 1.91 1.92 1.96 1.95 1.90 1.88 1.90
1.57 1.53 1.48 1.47 1.58 1.71 1.73 1.76 1.79 1.77 1.74 1.73 1.69 1.65 1.63 1.55 1.57 1.65 1.69 1.72 1.71 1.67 1.61 1.57 1.54 1.56 1.59 1.61 1.69 1.80 1.84 1.83 1.78 1.79 1.86 1.83 1.78 1.78 1.83 1.86 1.85 1.87 1.84
1.41 1.49 1.50 1.49 1.53 1.56 1.59 1.61 1.61 1.59 1.60 1.61 1.64 1.70 1.73 1.74 1.78 1.81 1.75 1.69 1.62 1.58 1.57 1.54 1.51 1.51 1.54 1.58 1.58 1.55 1.58 1.62 1.56 1.55 1.60 1.65 1.67 1.67 1.70 1.72 1.78 1.84 1.90
1.25 1.40 1.47 1.45 1.42 1.45 1.44 1.37 1.36 1.42 1.53 1.63 1.66 1.69 1.75 1.77 1.76 1.70 1.61 1.52 1.45 1.47 1.49 1.46 1.44 1.37 1.34 1.35 1.34 1.33 1.46 1.49 1.44 1.40 1.39 1.44 1.47 1.53 1.58 1.60 1.67 1.78 1.93
1.23 1.34 1.40 1.40 1.40 1.43 1.46 1.41 1.34 1.38 1.48 1.53 1.57 1.56 1.57 1.58 1.59 1.54 1.46 1.41 1.37 1.35 1.36 1.37 1.32 1.21 1.17 1.16 1.15 1.17 1.16 1.10 1.16 1.27 1.27 1.29 1.36 1.45 1.50 1.52 1.56 1.68 1.80